KJ6MC Weather Reports


Display with metric or nautical units.
time (UTC)temp
F
wind
direction
speed
MPH
gust
MPH
rain 1hr
in
rain 24hr
in
rain mn
in
humidity
%
barometer
mb
20260831034113 74 239 6.0 13.0 0.00 0.00 0.00 54 1009.2
20260831034054 74 239 6.0 13.0 0.00 0.00 0.00 54 1009.2
20260831034007 74 219 6.0 13.0 0.00 0.00 0.00 53 1009.2
20260831033906 74 224 6.0 13.0 0.00 0.00 0.00 53 1009.2
20260831033807 74 259 6.0 13.0 0.00 0.00 0.00 53 1009.2
20260831033707 74 208 6.0 13.0 0.00 0.00 0.00 53 1009.2
20260831033606 74 239 6.0 13.0 0.00 0.00 0.00 53 1009.2
20260831033554 74 247 6.0 13.0 0.00 0.00 0.00 53 1009.2
20260831033503 74 235 6.0 13.0 0.00 0.00 0.00 53 1009.2
20260831033401 74 207 6.0 13.0 0.00 0.00 0.00 53 1009.2
20260831033300 74 233 6.0 12.0 0.00 0.00 0.00 53 1009.2
20260831033201 74 233 6.0 12.0 0.00 0.00 0.00 53 1009.2
20260831033102 75 224 6.0 14.0 0.00 0.00 0.00 52 1009.1
20260831033056 75 236 6.0 14.0 0.00 0.00 0.00 52 1009.1
20260831032958 75 200 6.0 14.0 0.00 0.00 0.00 52 1009.2
20260831032855 75 231 5.0 14.0 0.00 0.00 0.00 52 1009.2
20260831032754 75 212 5.0 14.0 0.00 0.00 0.00 52 1009.2
20260831032708 75 240 5.0 14.0 0.00 0.00 0.00 52 1009.2
20260831032600 75 212 5.0 14.0 0.00 0.00 0.00 52 1009.2
20260831032450 75 229 5.0 14.0 0.00 0.00 0.00 51 1009.1
20260831032354 76 197 5.0 14.0 0.00 0.00 0.00 51 1009.1
20260831032248 76 236 5.0 14.0 0.00 0.00 0.00 51 1009.0
20260831032149 76 250 5.0 11.0 0.00 0.00 0.00 51 1009.1
20260831032055 76 203 4.0 11.0 0.00 0.00 0.00 50 1009.1
20260831032047 76 225 4.0 11.0 0.00 0.00 0.00 50 1009.1
20260831032039 77 218 5.0 12.0 0.00 0.00 0.00 48 1009.0
20260831031947 76 218 5.0 11.0 0.00 0.00 0.00 50 1009.1
20260831031849 76 255 5.0 11.0 0.00 0.00 0.00 49 1009.0
20260831031746 76 207 5.0 12.0 0.00 0.00 0.00 49 1009.0
20260831031711 77 228 5.0 12.0 0.00 0.00 0.00 49 1009.0
20260831031701 77 256 5.0 12.0 0.00 0.00 0.00 49 1009.0
20260831031444 77 256 5.0 12.0 0.00 0.00 0.00 48 1009.0
20260831031344 77 233 5.0 12.0 0.00 0.00 0.00 48 1009.0
20260831031242 77 212 5.0 12.0 0.00 0.00 0.00 48 1009.0
20260831031142 77 235 4.0 12.0 0.00 0.00 0.00 47 1009.0
20260831031055 78 246 5.0 12.0 0.00 0.00 0.00 47 1009.0
20260831031047 78 259 5.0 12.0 0.00 0.00 0.00 47 1009.0
20260831030940 78 222 4.0 12.0 0.00 0.00 0.00 46 1009.0
20260831030840 78 279 4.0 12.0 0.00 0.00 0.00 46 1009.0
20260831030740 78 214 4.0 11.0 0.00 0.00 0.00 46 1009.0
20260831030640 78 256 4.0 11.0 0.00 0.00 0.00 46 1009.0
20260831030540 78 229 3.0 9.0 0.00 0.00 0.00 45 1009.0
20260831030528 78 232 3.0 9.0 0.00 0.00 0.00 45 1009.0
20260831030440 78 246 3.0 9.0 0.00 0.00 0.00 45 1008.9
20260831030339 78 253 3.0 7.0 0.00 0.00 0.00 44 1009.0
20260831030234 78 221 3.0 10.0 0.00 0.00 0.00 44 1008.9
20260831030134 78 256 4.0 11.0 0.00 0.00 0.00 44 1008.9
20260831030034 79 252 4.0 11.0 0.00 0.00 0.00 43 1008.9
20260831030026 79 226 4.0 11.0 0.00 0.00 0.00 43 1008.9
20260831025932 79 274 4.0 11.0 0.00 0.00 0.00 43 1008.9
20260831025831 79 255 4.0 11.0 0.00 0.00 0.00 43 1008.9
20260831025726 79 240 4.0 11.0 0.00 0.00 0.00 43 1008.9
20260831025626 79 224 4.0 11.0 0.00 0.00 0.00 42 1008.9
20260831025528 79 222 4.0 11.0 0.00 0.00 0.00 42 1008.9
20260831025426 79 243 4.0 11.0 0.00 0.00 0.00 42 1008.9
20260831025325 79 249 4.0 11.0 0.00 0.00 0.00 42 1008.9
20260831025225 79 233 4.0 11.0 0.00 0.00 0.00 42 1008.9
20260831025120 79 235 4.0 11.0 0.00 0.00 0.00 42 1009.0
20260831025027 79 228 3.0 9.0 0.00 0.00 0.00 43 1008.9
20260831025021 79 231 3.0 9.0 0.00 0.00 0.00 43 1008.9
20260831024920 80 256 3.0 9.0 0.00 0.00 0.00 42 1008.9
20260831024817 80 229 3.0 9.0 0.00 0.00 0.00 42 1008.9
20260831024718 80 191 3.0 9.0 0.00 0.00 0.00 43 1008.9
20260831024618 80 236 3.0 9.0 0.00 0.00 0.00 42 1008.9
20260831024526 80 181 3.0 9.0 0.00 0.00 0.00 43 1008.9
20260831024516 80 229 3.0 9.0 0.00 0.00 0.00 43 1008.9
20260831024416 80 228 3.0 9.0 0.00 0.00 0.00 42 1008.9
20260831024316 80 226 2.0 9.0 0.00 0.00 0.00 43 1008.8
20260831024216 80 245 3.0 11.0 0.00 0.00 0.00 42 1008.9
20260831024116 80 238 3.0 11.0 0.00 0.00 0.00 42 1008.9
20260831024024 80 225 3.0 11.0 0.00 0.00 0.00 42 1008.9
20260831024016 80 245 3.0 11.0 0.00 0.00 0.00 42 1008.9
20260831023916 80 224 3.0 11.0 0.00 0.00 0.00 42 1008.9
20260831023814 80 203 3.0 11.0 0.00 0.00 0.00 42 1008.9
20260831023714 80 222 3.0 11.0 0.00 0.00 0.00 42 1008.9
20260831023612 80 282 3.0 11.0 0.00 0.00 0.00 41 1008.9
20260831023525 80 285 3.0 11.0 0.00 0.00 0.00 41 1008.9
20260831023512 81 221 3.0 11.0 0.00 0.00 0.00 41 1008.8
20260831023412 81 246 3.0 11.0 0.00 0.00 0.00 41 1008.8
20260831023312 81 259 3.0 11.0 0.00 0.00 0.00 41 1008.8
20260831023212 81 240 3.0 9.0 0.00 0.00 0.00 41 1008.8
20260831023112 81 212 3.0 9.0 0.00 0.00 0.00 41 1008.8
20260831023024 81 246 3.0 8.0 0.00 0.00 0.00 40 1008.8
20260831023013 81 271 3.0 8.0 0.00 0.00 0.00 40 1008.8
20260831022911 81 231 2.0 8.0 0.00 0.00 0.00 40 1008.8
20260831022812 81 238 3.0 8.0 0.00 0.00 0.00 40 1008.8
20260831022754 81 284 3.0 8.0 0.00 0.00 0.00 40 1008.8
20260831022712 81 225 3.0 8.0 0.00 0.00 0.00 40 1008.8
20260831022613 81 231 3.0 8.0 0.00 0.00 0.00 40 1008.8
20260831022512 81 284 3.0 8.0 0.00 0.00 0.00 40 1008.8
20260831022412 81 307 3.0 8.0 0.00 0.00 0.00 40 1008.7
20260831022312 81 271 3.0 8.0 0.00 0.00 0.00 40 1008.7
20260831022210 81 264 2.0 8.0 0.00 0.00 0.00 40 1008.7
20260831022110 82 245 3.0 7.0 0.00 0.00 0.00 40 1008.7
20260831022023 82 250 3.0 7.0 0.00 0.00 0.00 39 1008.7
20260831022008 82 245 3.0 7.0 0.00 0.00 0.00 40 1008.7
20260831021906 82 248 3.0 7.0 0.00 0.00 0.00 39 1008.7
20260831021806 82 242 3.0 7.0 0.00 0.00 0.00 39 1008.7
20260831021706 82 224 3.0 7.0 0.00 0.00 0.00 39 1008.7
20260831021604 82 233 3.0 9.0 0.00 0.00 0.00 39 1008.7
20260831021524 82 231 3.0 9.0 0.00 0.00 0.00 39 1008.7
20260831021504 82 235 3.0 9.0 0.00 0.00 0.00 39 1008.7
20260831021402 82 239 3.0 9.0 0.00 0.00 0.00 39 1008.7
20260831021301 82 218 3.0 9.0 0.00 0.00 0.00 39 1008.7
20260831021202 82 219 4.0 9.0 0.00 0.00 0.00 39 1008.7
20260831021102 82 243 4.0 9.0 0.00 0.00 0.00 39 1008.7
20260831021022 82 205 4.0 9.0 0.00 0.00 0.00 39 1008.7
20260831021003 82 248 4.0 9.0 0.00 0.00 0.00 39 1008.7
20260831020902 82 239 4.0 9.0 0.00 0.00 0.00 38 1008.7
20260831020756 83 233 3.0 9.0 0.00 0.00 0.00 38 1008.7
20260831020656 83 217 3.0 9.0 0.00 0.00 0.00 38 1008.7
20260831020556 83 230 3.0 9.0 0.00 0.00 0.00 37 1008.7
20260831020521 83 240 3.0 9.0 0.00 0.00 0.00 37 1008.7
20260831020457 83 235 3.0 9.0 0.00 0.00 0.00 37 1008.8
20260831020354 83 243 3.0 9.0 0.00 0.00 0.00 36 1008.8
20260831020250 83 269 3.0 9.0 0.00 0.00 0.00 35 1008.8
20260831020150 83 231 3.0 7.0 0.00 0.00 0.00 35 1008.7
20260831020049 83 256 3.0 9.0 0.00 0.00 0.00 35 1008.8
20260831020024 83 238 3.0 9.0 0.00 0.00 0.00 35 1008.8
20260831015950 83 240 3.0 9.0 0.00 0.00 0.00 35 1008.8
20260831015847 83 249 3.0 9.0 0.00 0.00 0.00 35 1008.8
20260831015743 83 238 3.0 9.0 0.00 0.00 0.00 35 1008.8
20260831015644 83 238 4.0 9.0 0.00 0.00 0.00 35 1008.7
20260831015545 83 229 4.0 9.0 0.00 0.00 0.00 35 1008.8
20260831015521 83 246 4.0 9.0 0.00 0.00 0.00 35 1008.8
20260831015443 83 232 4.0 9.0 0.00 0.00 0.00 35 1008.8
20260831015342 83 235 4.0 9.0 0.00 0.00 0.00 34 1008.8
20260831015237 83 236 4.0 9.0 0.00 0.00 0.00 34 1008.8
20260831015138 83 218 4.0 9.0 0.00 0.00 0.00 34 1008.7
20260831015037 84 233 3.0 8.0 0.00 0.00 0.00 35 1008.8
20260831015015 84 219 3.0 8.0 0.00 0.00 0.00 35 1008.7
20260831014937 84 243 3.0 8.0 0.00 0.00 0.00 35 1008.7
20260831014836 84 263 3.0 8.0 0.00 0.00 0.00 35 1008.8
20260831014731 84 260 3.0 8.0 0.00 0.00 0.00 35 1008.8
20260831014631 84 288 3.0 8.0 0.00 0.00 0.00 34 1008.7
20260831014531 84 236 3.0 9.0 0.00 0.00 0.00 35 1008.8
20260831014510 84 198 3.0 9.0 0.00 0.00 0.00 35 1008.8
20260831014431 84 207 3.0 9.0 0.00 0.00 0.00 35 1008.8
20260831014330 84 219 3.0 9.0 0.00 0.00 0.00 36 1008.7
20260831014234 84 235 4.0 9.0 0.00 0.00 0.00 35 1008.7
20260831014226 84 250 4.0 10.0 0.00 0.00 0.00 35 1008.7
20260831014129 84 232 4.0 10.0 0.00 0.00 0.00 35 1008.7
20260831014029 84 243 4.0 10.0 0.00 0.00 0.00 35 1008.8
20260831013927 84 259 4.0 10.0 0.00 0.00 0.00 35 1008.7
20260831013824 84 236 4.0 10.0 0.00 0.00 0.00 35 1008.7
20260831013719 84 219 4.0 10.0 0.00 0.00 0.00 35 1008.7
20260831013619 84 248 4.0 10.0 0.00 0.00 0.00 35 1008.7
20260831013521 85 228 3.0 10.0 0.00 0.00 0.00 35 1008.7
20260831013457 85 260 3.0 10.0 0.00 0.00 0.00 35 1008.7
20260831013418 85 205 3.0 10.0 0.00 0.00 0.00 35 1008.7
20260831013321 85 259 3.0 10.0 0.00 0.00 0.00 35 1008.7
20260831013215 85 243 2.0 10.0 0.00 0.00 0.00 35 1008.7
20260831013114 85 253 2.0 7.0 0.00 0.00 0.00 36 1008.7
20260831013015 85 235 2.0 5.0 0.00 0.00 0.00 36 1008.7
20260831012951 85 248 2.0 4.0 0.00 0.00 0.00 36 1008.7
20260831012915 85 236 2.0 5.0 0.00 0.00 0.00 36 1008.7
20260831012812 85 212 2.0 5.0 0.00 0.00 0.00 36 1008.7
20260831012707 85 228 2.0 5.0 0.00 0.00 0.00 35 1008.7
20260831012606 85 228 2.0 10.0 0.00 0.00 0.00 35 1008.7
20260831012507 85 225 2.0 10.0 0.00 0.00 0.00 35 1008.7
20260831012445 85 223 2.0 10.0 0.00 0.00 0.00 35 1008.7
20260831012407 85 233 3.0 10.0 0.00 0.00 0.00 35 1008.7
20260831012306 85 239 3.0 10.0 0.00 0.00 0.00 35 1008.8
20260831012206 85 238 3.0 10.0 0.00 0.00 0.00 37 1008.8
20260831012105 85 238 3.0 10.0 0.00 0.00 0.00 37 1008.7
20260831012003 85 225 2.0 10.0 0.00 0.00 0.00 36 1008.8
20260831011939 85 236 2.0 10.0 0.00 0.00 0.00 36 1008.8
20260831011901 85 227 2.0 10.0 0.00 0.00 0.00 36 1008.8
20260831011800 85 271 3.0 10.0 0.00 0.00 0.00 36 1008.8
20260831011702 85 267 2.0 10.0 0.00 0.00 0.00 36 1008.7
20260831011600 85 226 2.0 9.0 0.00 0.00 0.00 36 1008.8
20260831011459 85 191 3.0 9.0 0.00 0.00 0.00 35 1008.8
20260831011433 85 238 3.0 9.0 0.00 0.00 0.00 35 1008.8
20260831011423 85 282 4.0 10.0 0.00 0.00 0.00 35 1008.8
20260831011357 85 284 3.0 9.0 0.00 0.00 0.00 35 1008.8
20260831011305 85 239 3.0 9.0 0.00 0.00 0.00 35 1008.8
20260831011151 85 226 3.0 9.0 0.00 0.00 0.00 35 1008.8
20260831011052 85 238 3.0 9.0 0.00 0.00 0.00 35 1008.8
20260831011044 85 283 4.0 10.0 0.00 0.00 0.00 35 1008.8
20260831010848 85 231 4.0 10.0 0.00 0.00 0.00 35 1008.8
20260831010749 86 233 3.0 10.0 0.00 0.00 0.00 35 1008.8
20260831010720 86 243 3.0 10.0 0.00 0.00 0.00 35 1008.8
20260831010549 86 266 4.0 10.0 0.00 0.00 0.00 35 1008.8
20260831010447 85 226 4.0 10.0 0.00 0.00 0.00 35 1008.8
20260831010434 85 232 4.0 10.0 0.00 0.00 0.00 35 1008.8
20260831010345 85 231 4.0 12.0 0.00 0.00 0.00 35 1008.8
20260831010242 85 222 5.0 12.0 0.00 0.00 0.00 35 1008.8
20260831010157 86 233 4.0 12.0 0.00 0.00 0.00 35 1008.8
20260831010137 85 284 4.0 12.0 0.00 0.00 0.00 34 1008.7
20260831010052 86 236 4.0 12.0 0.00 0.00 0.00 35 1008.8
20260831010042 86 233 4.0 12.0 0.00 0.00 0.00 35 1008.8
20260831005837 86 233 5.0 12.0 0.00 0.00 0.00 35 1008.8
20260831005736 86 245 5.0 12.0 0.00 0.00 0.00 35 1008.8
20260831005633 86 250 5.0 12.0 0.00 0.00 0.00 34 1008.8
20260831005531 86 208 5.0 12.0 0.00 0.00 0.00 34 1008.8
20260831005436 86 221 5.0 12.0 0.00 0.00 0.00 34 1008.8
20260831005431 86 245 5.0 12.0 0.00 0.00 0.00 34 1008.8
20260831005331 86 226 5.0 12.0 0.00 0.00 0.00 34 1008.8
20260831005230 86 231 5.0 12.0 0.00 0.00 0.00 34 1008.8
20260831005123 86 250 5.0 12.0 0.00 0.00 0.00 34 1008.8
20260831005022 86 256 5.0 12.0 0.00 0.00 0.00 34 1008.8
20260831004935 86 240 5.0 12.0 0.00 0.00 0.00 33 1008.8
20260831004922 86 143 5.0 12.0 0.00 0.00 0.00 33 1008.8
20260831004823 86 222 4.0 12.0 0.00 0.00 0.00 33 1008.8
20260831004722 86 228 4.0 10.0 0.00 0.00 0.00 34 1008.8
20260831004617 87 240 4.0 10.0 0.00 0.00 0.00 34 1008.8
20260831004517 87 264 4.0 10.0 0.00 0.00 0.00 34 1008.9
20260831004434 87 253 4.0 10.0 0.00 0.00 0.00 34 1008.9
20260831004417 87 256 4.0 10.0 0.00 0.00 0.00 34 1008.9
20260831004317 87 236 4.0 10.0 0.00 0.00 0.00 34 1008.9
20260831004215 87 144 4.0 10.0 0.00 0.00 0.00 34 1008.9
20260831004106 87 247 3.0 10.0 0.00 0.00 0.00 34 1008.9
20260831004006 87 245 4.0 10.0 0.00 0.00 0.00 35 1008.9
20260831003934 87 231 4.0 10.0 0.00 0.00 0.00 35 1008.9
20260831003905 87 236 3.0 10.0 0.00 0.00 0.00 34 1008.9
20260831003806 87 242 3.0 10.0 0.00 0.00 0.00 34 1008.9
20260831003705 87 226 4.0 10.0 0.00 0.00 0.00 34 1008.9
20260831003602 87 160 4.0 10.0 0.00 0.00 0.00 34 1008.9
20260831003500 87 188 4.0 10.0 0.00 0.00 0.00 34 1008.9
20260831003434 87 190 4.0 10.0 0.00 0.00 0.00 34 1008.9
20260831003400 87 212 4.0 10.0 0.00 0.00 0.00 35 1008.8
20260831003300 87 210 3.0 10.0 0.00 0.00 0.00 34 1008.9
20260831003157 87 210 3.0 8.0 0.00 0.00 0.00 35 1008.8
20260831003050 87 236 4.0 9.0 0.00 0.00 0.00 35 1008.8
20260831002950 87 243 4.0 9.0 0.00 0.00 0.00 35 1008.8
20260831002932 87 213 4.0 9.0 0.00 0.00 0.00 35 1008.8
20260831002850 87 226 4.0 9.0 0.00 0.00 0.00 34 1008.9
20260831002750 87 238 4.0 10.0 0.00 0.00 0.00 34 1008.8
20260831002649 87 235 4.0 10.0 0.00 0.00 0.00 34 1008.8
20260831002544 87 235 4.0 10.0 0.00 0.00 0.00 34 1008.8
20260831002444 87 204 4.0 10.0 0.00 0.00 0.00 35 1008.8
20260831002430 87 155 4.0 10.0 0.00 0.00 0.00 35 1008.8
20260831002344 87 253 4.0 11.0 0.00 0.00 0.00 35 1008.8
20260831002244 87 236 5.0 11.0 0.00 0.00 0.00 35 1008.8
20260831002202 87 240 5.0 11.0 0.00 0.00 0.00 35 1008.9
20260831002142 87 271 5.0 11.0 0.00 0.00 0.00 35 1008.9
20260831002046 87 256 5.0 11.0 0.00 0.00 0.00 35 1008.9
20260831002038 87 266 5.0 11.0 0.00 0.00 0.00 35 1008.9
20260831001912 87 246 4.0 13.0 0.00 0.00 0.00 36 1008.9
20260831001836 87 232 5.0 11.0 0.00 0.00 0.00 36 1008.9
20260831001758 87 249 5.0 13.0 0.00 0.00 0.00 35 1008.8
20260831001636 87 215 5.0 13.0 0.00 0.00 0.00 35 1008.8
20260831001545 87 208 5.0 13.0 0.00 0.00 0.00 35 1008.9
20260831001537 87 246 4.0 13.0 0.00 0.00 0.00 36 1008.9
20260831001332 87 257 4.0 13.0 0.00 0.00 0.00 36 1008.9
20260831001230 87 167 4.0 13.0 0.00 0.00 0.00 36 1008.9
20260831001128 87 219 4.0 13.0 0.00 0.00 0.00 35 1008.9
20260831001020 87 229 3.0 13.0 0.00 0.00 0.00 35 1009.0
20260831000930 88 231 3.0 13.0 0.00 0.00 0.00 35 1009.0
20260831000919 88 252 3.0 13.0 0.00 0.00 0.00 35 1009.0
20260831000820 88 239 3.0 13.0 0.00 0.00 0.00 35 1009.0
20260831000720 88 238 3.0 9.0 0.00 0.00 0.00 36 1009.0
20260831000619 88 232 3.0 9.0 0.00 0.00 0.00 36 1009.0
20260831000514 88 233 3.0 7.0 0.00 0.00 0.00 36 1009.0
20260831000432 88 229 3.0 7.0 0.00 0.00 0.00 36 1009.0
20260831000414 88 240 3.0 7.0 0.00 0.00 0.00 36 1009.0
20260831000314 88 195 3.0 8.0 0.00 0.00 0.00 36 1009.0
20260831000214 88 238 3.0 8.0 0.00 0.00 0.00 36 1009.0
20260831000112 88 239 4.0 8.0 0.00 0.00 0.00 36 1009.0
20260831000006 88 194 4.0 9.0 0.00 0.00 0.00 36 1009.0
20260830235932 88 228 4.0 9.0 0.00 0.00 0.00 36 1009.0
20260830235905 88 197 4.0 9.0 0.00 0.00 0.00 35 1009.0
20260830235806 88 228 3.0 9.0 0.00 0.00 0.00 35 1009.0
20260830235705 88 214 3.0 9.0 0.00 0.00 0.00 35 1009.0
20260830235606 88 192 3.0 9.0 0.00 0.00 0.00 35 1009.0
20260830235502 89 173 3.0 9.0 0.00 0.00 0.00 35 1009.1
20260830235426 89 202 3.0 9.0 0.00 0.00 0.00 35 1009.1
20260830235400 89 217 2.0 9.0 0.00 0.00 0.00 34 1009.0
20260830235300 89 236 2.0 9.0 0.00 0.00 0.00 34 1009.0
20260830235200 89 239 2.0 9.0 0.00 0.00 0.00 34 1009.0
20260830235059 90 250 2.0 9.0 0.00 0.00 0.00 34 1009.0
20260830234955 90 235 2.0 5.0 0.00 0.00 0.00 35 1009.0
20260830234920 90 236 2.0 6.0 0.00 0.00 0.00 34 1009.0
20260830234854 90 236 2.0 6.0 0.00 0.00 0.00 34 1009.0
20260830234754 90 233 3.0 8.0 0.00 0.00 0.00 35 1009.1
20260830234653 90 239 3.0 8.0 0.00 0.00 0.00 34 1009.1
20260830234554 90 155 3.0 8.0 0.00 0.00 0.00 34 1009.1
20260830234450 90 155 3.0 8.0 0.00 0.00 0.00 34 1009.1
20260830234414 90 214 3.0 8.0 0.00 0.00 0.00 34 1009.1
20260830234350 90 135 3.0 8.0 0.00 0.00 0.00 34 1009.1
20260830234250 90 115 3.0 8.0 0.00 0.00 0.00 34 1009.1
20260830234150 90 229 3.0 8.0 0.00 0.00 0.00 34 1009.1
20260830234139 90 238 3.0 8.0 0.00 0.00 0.00 33 1009.1
20260830234048 90 173 3.0 8.0 0.00 0.00 0.00 34 1009.1
20260830234021 90 118 3.0 8.0 0.00 0.00 0.00 33 1009.1
20260830233842 90 238 2.0 8.0 0.00 0.00 0.00 34 1009.1
20260830233742 90 219 2.0 7.0 0.00 0.00 0.00 34 1009.1
20260830233643 90 136 2.0 6.0 0.00 0.00 0.00 34 1009.1
20260830233637 91 233 2.0 5.0 0.00 0.00 0.00 33 1009.1
20260830233541 90 117 2.0 6.0 0.00 0.00 0.00 33 1009.1
20260830233522 90 153 2.0 5.0 0.00 0.00 0.00 34 1009.1
20260830233340 91 233 1.0 5.0 0.00 0.00 0.00 33 1009.1
20260830233241 91 224 1.0 5.0 0.00 0.00 0.00 31 1009.1
20260830233138 91 235 1.0 5.0 0.00 0.00 0.00 31 1009.1
20260830233035 91 236 1.0 5.0 0.00 0.00 0.00 31 1009.1
20260830232934 91 92 1.0 5.0 0.00 0.00 0.00 30 1009.2
20260830232926 91 192 1.0 5.0 0.00 0.00 0.00 30 1009.2
20260830232830 91 214 1.0 5.0 0.00 0.00 0.00 31 1009.1
20260830232730 91 214 1.0 5.0 0.00 0.00 0.00 30 1009.2
20260830232630 91 298 1.0 4.0 0.00 0.00 0.00 31 1009.2
20260830232530 91 215 1.0 4.0 0.00 0.00 0.00 32 1009.2
20260830232428 91 256 1.0 4.0 0.00 0.00 0.00 32 1009.2
20260830232414 91 236 1.0 4.0 0.00 0.00 0.00 33 1009.2
20260830232328 91 236 1.0 4.0 0.00 0.00 0.00 33 1009.2
20260830232228 91 236 1.0 4.0 0.00 0.00 0.00 32 1009.2
20260830232127 91 236 1.0 4.0 0.00 0.00 0.00 32 1009.3
20260830232023 91 236 1.0 4.0 0.00 0.00 0.00 32 1009.3
20260830231924 91 236 1.0 4.0 0.00 0.00 0.00 31 1009.3
20260830231911 91 240 1.0 4.0 0.00 0.00 0.00 31 1009.3
20260830231822 91 240 1.0 4.0 0.00 0.00 0.00 32 1009.3
20260830231720 91 238 1.0 5.0 0.00 0.00 0.00 32 1009.3
20260830231620 91 131 2.0 7.0 0.00 0.00 0.00 31 1009.3
20260830231517 91 240 2.0 7.0 0.00 0.00 0.00 33 1009.3
20260830231411 91 236 2.0 8.0 0.00 0.00 0.00 33 1009.3
20260830231406 90 207 2.0 8.0 0.00 0.00 0.00 32 1009.4
20260830231314 90 219 2.0 8.0 0.00 0.00 0.00 33 1009.3
20260830231246 90 233 2.0 8.0 0.00 0.00 0.00 33 1009.3
20260830231114 90 207 2.0 8.0 0.00 0.00 0.00 32 1009.3
20260830231024 90 207 2.0 8.0 0.00 0.00 0.00 32 1009.3
20260830230908 90 207 2.0 8.0 0.00 0.00 0.00 32 1009.4
20260830230807 90 219 2.0 8.0 0.00 0.00 0.00 32 1009.4
20260830230708 90 228 1.0 8.0 0.00 0.00 0.00 31 1009.4
20260830230606 90 228 1.0 8.0 0.00 0.00 0.00 32 1009.4
20260830230505 90 60 1.0 4.0 0.00 0.00 0.00 33 1009.4
20260830230410 90 221 1.0 4.0 0.00 0.00 0.00 33 1009.4
20260830230402 90 207 1.0 4.0 0.00 0.00 0.00 33 1009.4
20260830230300 90 133 1.0 4.0 0.00 0.00 0.00 33 1009.4
20260830230200 90 133 1.0 4.0 0.00 0.00 0.00 34 1009.5
20260830230100 90 85 2.0 4.0 0.00 0.00 0.00 34 1009.4
20260830225959 90 85 2.0 4.0 0.00 0.00 0.00 33 1009.5
20260830225910 90 86 2.0 5.0 0.00 0.00 0.00 34 1009.5
20260830225900 90 87 2.0 5.0 0.00 0.00 0.00 34 1009.5
20260830225758 90 137 2.0 5.0 0.00 0.00 0.00 34 1009.5
20260830225656 90 136 2.0 5.0 0.00 0.00 0.00 34 1009.5
20260830225638 90 231 2.0 7.0 0.00 0.00 0.00 34 1009.6
20260830225556 90 156 2.0 5.0 0.00 0.00 0.00 34 1009.5
20260830225521 90 172 2.0 7.0 0.00 0.00 0.00 34 1009.6
20260830225349 90 232 2.0 7.0 0.00 0.00 0.00 34 1009.6
20260830225250 90 233 2.0 7.0 0.00 0.00 0.00 33 1009.6
20260830225148 90 180 2.0 7.0 0.00 0.00 0.00 34 1009.6
20260830225048 90 228 2.0 7.0 0.00 0.00 0.00 35 1009.6
20260830224945 90 198 2.0 7.0 0.00 0.00 0.00 35 1009.6
20260830224910 89 202 2.0 7.0 0.00 0.00 0.00 35 1009.6
20260830224842 89 219 2.0 7.0 0.00 0.00 0.00 35 1009.6
20260830224740 89 207 2.0 7.0 0.00 0.00 0.00 34 1009.6
20260830224640 89 243 2.0 7.0 0.00 0.00 0.00 35 1009.6
20260830224540 89 196 2.0 7.0 0.00 0.00 0.00 34 1009.6
20260830224439 89 177 2.0 4.0 0.00 0.00 0.00 34 1009.6
20260830224410 89 307 2.0 4.0 0.00 0.00 0.00 34 1009.6
20260830224336 89 225 2.0 4.0 0.00 0.00 0.00 34 1009.6
20260830224236 89 226 2.0 4.0 0.00 0.00 0.00 33 1009.6
20260830224136 89 229 2.0 6.0 0.00 0.00 0.00 33 1009.7
20260830224036 89 218 2.0 6.0 0.00 0.00 0.00 33 1009.7
20260830223909 89 235 2.0 6.0 0.00 0.00 0.00 34 1009.7
20260830223830 89 228 2.0 6.0 0.00 0.00 0.00 35 1009.7
20260830223728 89 235 2.0 6.0 0.00 0.00 0.00 34 1009.8
20260830223633 89 135 2.0 6.0 0.00 0.00 0.00 35 1009.8
20260830223628 89 236 2.0 6.0 0.00 0.00 0.00 34 1009.7
20260830223528 89 208 2.0 6.0 0.00 0.00 0.00 34 1009.8
20260830223518 89 226 2.0 6.0 0.00 0.00 0.00 35 1009.8
20260830223323 89 217 2.0 6.0 0.00 0.00 0.00 35 1009.8
20260830223222 89 238 2.0 6.0 0.00 0.00 0.00 35 1009.8
20260830223122 89 233 2.0 5.0 0.00 0.00 0.00 35 1009.8
20260830223022 89 253 2.0 5.0 0.00 0.00 0.00 36 1009.8
20260830222910 89 250 2.0 5.0 0.00 0.00 0.00 36 1009.8
20260830222819 89 236 2.0 6.0 0.00 0.00 0.00 36 1009.8
20260830222720 88 170 2.0 9.0 0.00 0.00 0.00 35 1009.9
20260830222618 88 159 3.0 9.0 0.00 0.00 0.00 35 1009.9
20260830222519 88 124 3.0 9.0 0.00 0.00 0.00 34 1009.9
20260830222416 88 149 3.0 9.0 0.00 0.00 0.00 34 1010.0
20260830222408 88 145 3.0 9.0 0.00 0.00 0.00 34 1010.0
20260830222309 88 245 3.0 9.0 0.00 0.00 0.00 35 1010.0
20260830222210 88 244 3.0 9.0 0.00 0.00 0.00 34 1010.0
20260830222110 88 244 3.0 9.0 0.00 0.00 0.00 34 1010.1
20260830222008 88 245 3.0 9.0 0.00 0.00 0.00 32 1010.0
20260830221909 89 239 3.0 9.0 0.00 0.00 0.00 33 1010.1
20260830221802 89 240 2.0 9.0 0.00 0.00 0.00 34 1010.0
20260830221702 89 235 2.0 8.0 0.00 0.00 0.00 34 1010.1
20260830221602 89 214 2.0 6.0 0.00 0.00 0.00 35 1010.1
20260830221502 89 219 2.0 6.0 0.00 0.00 0.00 35 1010.1
20260830221406 89 163 2.0 6.0 0.00 0.00 0.00 34 1010.1
20260830221400 89 152 2.0 6.0 0.00 0.00 0.00 34 1010.1
20260830221300 89 219 2.0 6.0 0.00 0.00 0.00 35 1010.1
20260830221158 89 212 2.0 6.0 0.00 0.00 0.00 35 1010.1
20260830221058 88 353 2.0 6.0 0.00 0.00 0.00 36 1010.1
20260830220956 88 285 2.0 6.0 0.00 0.00 0.00 36 1010.2
20260830220904 88 284 3.0 7.0 0.00 0.00 0.00 37 1010.2
20260830220853 88 283 3.0 7.0 0.00 0.00 0.00 37 1010.2
20260830220749 88 293 3.0 7.0 0.00 0.00 0.00 36 1010.2
20260830220648 87 304 3.0 7.0 0.00 0.00 0.00 35 1010.2
20260830220548 87 141 3.0 7.0 0.00 0.00 0.00 34 1010.2
20260830220447 88 225 3.0 7.0 0.00 0.00 0.00 34 1010.3
20260830220402 88 217 3.0 7.0 0.00 0.00 0.00 35 1010.3
20260830220347 88 224 3.0 7.0 0.00 0.00 0.00 35 1010.3
20260830220242 88 160 2.0 7.0 0.00 0.00 0.00 35 1010.3
20260830220142 88 179 2.0 7.0 0.00 0.00 0.00 35 1010.3
20260830220043 88 219 2.0 7.0 0.00 0.00 0.00 36 1010.3
20260830215942 88 250 1.0 7.0 0.00 0.00 0.00 35 1010.4
20260830215903 89 239 1.0 7.0 0.00 0.00 0.00 35 1010.3
20260830215842 89 194 1.0 7.0 0.00 0.00 0.00 36 1010.3
20260830215740 89 238 1.0 4.0 0.00 0.00 0.00 36 1010.4
20260830215640 89 229 1.0 7.0 0.00 0.00 0.00 36 1010.4
20260830215542 88 232 1.0 7.0 0.00 0.00 0.00 35 1010.4
20260830215438 88 232 1.0 7.0 0.00 0.00 0.00 36 1010.4
20260830215402 88 229 2.0 7.0 0.00 0.00 0.00 37 1010.5
20260830215343 88 236 2.0 7.0 0.00 0.00 0.00 38 1010.6
20260830215335 88 222 2.0 7.0 0.00 0.00 0.00 38 1010.5
20260830215235 88 219 2.0 7.0 0.00 0.00 0.00 38 1010.5
20260830215226 88 218 2.0 7.0 0.00 0.00 0.00 38 1010.6
20260830215034 88 217 2.0 7.0 0.00 0.00 0.00 38 1010.6
20260830215010 88 236 2.0 7.0 0.00 0.00 0.00 37 1010.6
20260830214829 88 236 2.0 7.0 0.00 0.00 0.00 37 1010.6
20260830214724 88 231 2.0 7.0 0.00 0.00 0.00 36 1010.6
20260830214624 88 240 2.0 6.0 0.00 0.00 0.00 37 1010.6
20260830214524 88 278 1.0 6.0 0.00 0.00 0.00 38 1010.6
20260830214424 88 233 1.0 4.0 0.00 0.00 0.00 40 1010.6
20260830214403 87 232 2.0 4.0 0.00 0.00 0.00 40 1010.6
20260830214323 87 232 2.0 6.0 0.00 0.00 0.00 39 1010.6
20260830214220 87 232 2.0 6.0 0.00 0.00 0.00 40 1010.6
20260830214118 88 219 2.0 6.0 0.00 0.00 0.00 39 1010.6
20260830214018 88 231 2.0 6.0 0.00 0.00 0.00 39 1010.6
20260830213918 87 144 1.0 6.0 0.00 0.00 0.00 40 1010.7
20260830213903 87 144 1.0 6.0 0.00 0.00 0.00 39 1010.7
20260830213817 87 106 1.0 6.0 0.00 0.00 0.00 39 1010.7
20260830213712 87 225 1.0 6.0 0.00 0.00 0.00 40 1010.7
20260830213612 87 116 1.0 6.0 0.00 0.00 0.00 40 1010.8
20260830213511 87 117 1.0 6.0 0.00 0.00 0.00 40 1010.8
20260830213411 87 173 1.0 6.0 0.00 0.00 0.00 40 1010.8
20260830213401 87 180 1.0 6.0 0.00 0.00 0.00 40 1010.8
20260830213311 87 228 1.0 6.0 0.00 0.00 0.00 40 1010.8
20260830213210 86 112 1.0 6.0 0.00 0.00 0.00 42 1010.8
20260830213120 86 226 2.0 6.0 0.00 0.00 0.00 42 1010.9
20260830213110 86 314 1.0 6.0 0.00 0.00 0.00 42 1010.8
20260830213016 86 309 1.0 6.0 0.00 0.00 0.00 41 1010.8
20260830213007 86 305 2.0 6.0 0.00 0.00 0.00 42 1010.9
20260830212806 86 226 2.0 6.0 0.00 0.00 0.00 42 1010.9
20260830212702 86 226 2.0 6.0 0.00 0.00 0.00 43 1010.9
20260830212600 86 226 3.0 6.0 0.00 0.00 0.00 42 1010.9
20260830212500 85 226 3.0 7.0 0.00 0.00 0.00 42 1010.9
20260830212406 85 235 3.0 7.0 0.00 0.00 0.00 41 1010.9
20260830212358 85 229 3.0 7.0 0.00 0.00 0.00 41 1010.9
20260830212300 85 236 3.0 7.0 0.00 0.00 0.00 42 1010.9
20260830212158 85 229 3.0 7.0 0.00 0.00 0.00 42 1010.9
20260830212058 85 228 3.0 7.0 0.00 0.00 0.00 43 1010.9
20260830211958 85 235 4.0 9.0 0.00 0.00 0.00 43 1011.0
20260830211902 84 217 4.0 9.0 0.00 0.00 0.00 42 1011.0
20260830211856 85 217 4.0 9.0 0.00 0.00 0.00 42 1011.0
20260830211753 85 176 4.0 9.0 0.00 0.00 0.00 43 1011.0
20260830211649 85 219 4.0 9.0 0.00 0.00 0.00 43 1011.0
20260830211548 85 204 3.0 9.0 0.00 0.00 0.00 43 1011.0
20260830211449 85 218 4.0 9.0 0.00 0.00 0.00 43 1011.0
20260830211357 85 134 4.0 9.0 0.00 0.00 0.00 43 1011.1
20260830211348 85 142 4.0 9.0 0.00 0.00 0.00 43 1011.1
20260830211247 85 214 3.0 9.0 0.00 0.00 0.00 43 1011.0
20260830211144 85 226 3.0 9.0 0.00 0.00 0.00 43 1011.1
20260830211042 85 246 3.0 9.0 0.00 0.00 0.00 42 1011.0
20260830210942 86 228 3.0 8.0 0.00 0.00 0.00 41 1011.1
20260830210856 86 238 3.0 8.0 0.00 0.00 0.00 42 1011.0
20260830210842 86 255 3.0 8.0 0.00 0.00 0.00 42 1011.0
20260830210741 86 239 2.0 8.0 0.00 0.00 0.00 42 1011.0
20260830210638 86 278 2.0 8.0 0.00 0.00 0.00 42 1011.1
20260830210536 86 204 2.0 8.0 0.00 0.00 0.00 42 1011.1
20260830210435 85 188 2.0 7.0 0.00 0.00 0.00 42 1011.1
20260830210356 85 222 2.0 5.0 0.00 0.00 0.00 43 1011.1
20260830210336 85 318 2.0 5.0 0.00 0.00 0.00 43 1011.1
20260830210235 85 309 2.0 5.0 0.00 0.00 0.00 43 1011.1
20260830210130 85 138 2.0 5.0 0.00 0.00 0.00 44 1011.1
20260830210030 85 213 2.0 5.0 0.00 0.00 0.00 43 1011.2
20260830205931 85 141 2.0 8.0 0.00 0.00 0.00 42 1011.2
20260830205856 85 217 2.0 8.0 0.00 0.00 0.00 43 1011.2
20260830205830 85 222 2.0 8.0 0.00 0.00 0.00 43 1011.2
20260830205728 85 231 2.0 9.0 0.00 0.00 0.00 45 1011.2
20260830205622 85 213 3.0 9.0 0.00 0.00 0.00 45 1011.2
20260830205522 84 245 3.0 11.0 0.00 0.00 0.00 44 1011.2
20260830205422 84 245 3.0 11.0 0.00 0.00 0.00 44 1011.2
20260830205355 84 193 3.0 11.0 0.00 0.00 0.00 44 1011.2
20260830205322 84 197 3.0 11.0 0.00 0.00 0.00 45 1011.2
20260830205221 84 236 3.0 11.0 0.00 0.00 0.00 45 1011.3
20260830205118 84 238 3.0 11.0 0.00 0.00 0.00 44 1011.3
20260830205016 84 229 3.0 11.0 0.00 0.00 0.00 44 1011.3
20260830204916 84 231 2.0 11.0 0.00 0.00 0.00 44 1011.3
20260830204858 85 248 2.0 11.0 0.00 0.00 0.00 44 1011.3
20260830204816 85 249 2.0 11.0 0.00 0.00 0.00 43 1011.3
20260830204713 85 256 2.0 11.0 0.00 0.00 0.00 44 1011.2
20260830204608 85 201 1.0 9.0 0.00 0.00 0.00 44 1011.3
20260830204508 85 218 1.0 9.0 0.00 0.00 0.00 44 1011.3
20260830204408 85 197 2.0 9.0 0.00 0.00 0.00 44 1011.4
20260830204352 85 198 2.0 9.0 0.00 0.00 0.00 44 1011.4
20260830204308 85 270 2.0 9.0 0.00 0.00 0.00 45 1011.3
20260830204205 84 146 2.0 9.0 0.00 0.00 0.00 44 1011.4
20260830204100 84 212 2.0 9.0 0.00 0.00 0.00 45 1011.4
20260830204001 84 276 2.0 9.0 0.00 0.00 0.00 45 1011.4
20260830203859 84 242 2.0 9.0 0.00 0.00 0.00 44 1011.4
20260830203852 84 229 2.0 9.0 0.00 0.00 0.00 44 1011.4
20260830203800 84 245 2.0 9.0 0.00 0.00 0.00 45 1011.4
20260830203659 84 239 2.0 7.0 0.00 0.00 0.00 46 1011.4
20260830203600 84 169 2.0 7.0 0.00 0.00 0.00 45 1011.4
20260830203458 84 169 3.0 7.0 0.00 0.00 0.00 44 1011.4
20260830203357 84 169 2.0 7.0 0.00 0.00 0.00 44 1011.4
20260830203350 84 146 2.0 7.0 0.00 0.00 0.00 44 1011.4
20260830203256 84 217 2.0 7.0 0.00 0.00 0.00 45 1011.4
20260830203153 84 145 2.0 7.0 0.00 0.00 0.00 44 1011.5
20260830203048 84 200 2.0 7.0 0.00 0.00 0.00 44 1011.5
20260830202949 84 205 2.0 7.0 0.00 0.00 0.00 44 1011.5
20260830202854 85 242 2.0 7.0 0.00 0.00 0.00 44 1011.5
20260830202848 85 239 2.0 7.0 0.00 0.00 0.00 44 1011.5
20260830202748 85 217 2.0 7.0 0.00 0.00 0.00 44 1011.5
20260830202647 84 219 2.0 7.0 0.00 0.00 0.00 44 1011.6
20260830202542 84 208 2.0 7.0 0.00 0.00 0.00 45 1011.6
20260830202442 84 287 1.0 7.0 0.00 0.00 0.00 45 1011.5
20260830202341 84 141 2.0 7.0 0.00 0.00 0.00 45 1011.6
20260830202242 84 131 2.0 7.0 0.00 0.00 0.00 44 1011.6
20260830202141 84 208 2.0 7.0 0.00 0.00 0.00 45 1011.6
20260830202036 84 214 2.0 7.0 0.00 0.00 0.00 45 1011.6
20260830201936 84 248 2.0 6.0 0.00 0.00 0.00 47 1011.6
20260830201836 83 286 2.0 6.0 0.00 0.00 0.00 47 1011.6
20260830201736 83 224 2.0 5.0 0.00 0.00 0.00 47 1011.6
20260830201636 83 150 1.0 5.0 0.00 0.00 0.00 46 1011.6
20260830201614 83 321 1.0 5.0 0.00 0.00 0.00 46 1011.6
20260830201530 83 347 1.0 5.0 0.00 0.00 0.00 47 1011.6
20260830201501 83 347 1.0 5.0 0.00 0.00 0.00 46 1011.6
20260830201330 83 293 1.0 5.0 0.00 0.00 0.00 46 1011.6
20260830201230 83 325 1.0 5.0 0.00 0.00 0.00 46 1011.6
20260830201129 83 181 1.0 4.0 0.00 0.00 0.00 46 1011.7
20260830201025 83 208 1.0 4.0 0.00 0.00 0.00 46 1011.7
20260830200926 83 307 1.0 4.0 0.00 0.00 0.00 48 1011.7
20260830200848 83 283 1.0 4.0 0.00 0.00 0.00 48 1011.7
20260830200826 83 283 1.0 4.0 0.00 0.00 0.00 47 1011.7
20260830200726 83 285 1.0 4.0 0.00 0.00 0.00 48 1011.7
20260830200623 83 270 1.0 4.0 0.00 0.00 0.00 48 1011.7
20260830200518 83 229 1.0 4.0 0.00 0.00 0.00 48 1011.7
20260830200418 83 218 1.0 4.0 0.00 0.00 0.00 48 1011.7
20260830200345 83 302 2.0 4.0 0.00 0.00 0.00 48 1011.7
20260830200318 83 302 2.0 4.0 0.00 0.00 0.00 47 1011.7
20260830200218 83 212 2.0 4.0 0.00 0.00 0.00 48 1011.7
20260830200117 82 339 2.0 6.0 0.00 0.00 0.00 48 1011.7
20260830200014 82 339 2.0 6.0 0.00 0.00 0.00 49 1011.8
20260830195914 82 239 2.0 6.0 0.00 0.00 0.00 49 1011.8
20260830195844 82 239 2.0 6.0 0.00 0.00 0.00 49 1011.7
20260830195814 82 231 2.0 6.0 0.00 0.00 0.00 48 1011.7
20260830195712 82 131 2.0 6.0 0.00 0.00 0.00 48 1011.8
20260830195611 82 131 2.0 6.0 0.00 0.00 0.00 47 1011.8
20260830195508 82 228 2.0 6.0 0.00 0.00 0.00 47 1011.8
20260830195408 82 133 1.0 6.0 0.00 0.00 0.00 47 1011.8
20260830195343 82 214 1.0 6.0 0.00 0.00 0.00 47 1011.8
20260830195306 82 193 1.0 6.0 0.00 0.00 0.00 47 1011.8
20260830195206 82 235 1.0 6.0 0.00 0.00 0.00 48 1011.8
20260830195106 82 218 2.0 6.0 0.00 0.00 0.00 49 1011.8
20260830195002 82 218 2.0 6.0 0.00 0.00 0.00 49 1011.8
20260830194900 81 218 2.0 7.0 0.00 0.00 0.00 49 1011.8
20260830194841 81 218 2.0 7.0 0.00 0.00 0.00 48 1011.8
20260830194800 81 214 2.0 7.0 0.00 0.00 0.00 49 1011.9
20260830194700 81 102 1.0 7.0 0.00 0.00 0.00 49 1011.8
20260830194559 81 201 1.0 7.0 0.00 0.00 0.00 49 1011.9
20260830194458 81 228 1.0 7.0 0.00 0.00 0.00 49 1011.9
20260830194358 80 222 1.0 7.0 0.00 0.00 0.00 49 1011.9
20260830194341 80 221 1.0 7.0 0.00 0.00 0.00 50 1011.9
20260830194258 80 224 1.0 7.0 0.00 0.00 0.00 49 1011.9
20260830194155 80 222 1.0 7.0 0.00 0.00 0.00 48 1011.9
20260830194053 81 229 1.0 7.0 0.00 0.00 0.00 48 1012.0
20260830193948 81 238 0.0 7.0 0.00 0.00 0.00 49 1012.0
20260830193836 81 228 1.0 3.0 0.00 0.00 0.00 50 1011.9
20260830193748 81 183 1.0 3.0 0.00 0.00 0.00 50 1012.0
20260830193648 81 128 1.0 3.0 0.00 0.00 0.00 50 1012.0
20260830193547 80 128 1.0 6.0 0.00 0.00 0.00 50 1012.0
20260830193443 80 197 1.0 6.0 0.00 0.00 0.00 50 1012.0
20260830193334 80 197 1.0 6.0 0.00 0.00 0.00 51 1012.0
20260830193242 80 233 1.0 6.0 0.00 0.00 0.00 51 1012.1
20260830193141 80 219 1.0 6.0 0.00 0.00 0.00 52 1012.1
20260830193041 79 222 1.0 6.0 0.00 0.00 0.00 52 1012.1
20260830192938 79 236 1.0 6.0 0.00 0.00 0.00 52 1012.1
20260830192840 79 229 1.0 6.0 0.00 0.00 0.00 52 1012.1
20260830192832 79 228 1.0 6.0 0.00 0.00 0.00 52 1012.1
20260830192736 78 242 1.0 6.0 0.00 0.00 0.00 51 1012.1
20260830192634 78 257 1.0 6.0 0.00 0.00 0.00 52 1012.1
20260830192534 78 156 1.0 5.0 0.00 0.00 0.00 51 1012.1
20260830192428 78 5 1.0 5.0 0.00 0.00 0.00 51 1012.2
20260830192329 78 323 1.0 5.0 0.00 0.00 0.00 52 1012.2
20260830192228 78 332 1.0 5.0 0.00 0.00 0.00 52 1012.2
20260830192128 78 43 1.0 3.0 0.00 0.00 0.00 51 1012.2
20260830192027 79 138 1.0 3.0 0.00 0.00 0.00 50 1012.2
20260830191928 79 335 1.0 3.0 0.00 0.00 0.00 50 1012.3
20260830191826 79 340 1.0 3.0 0.00 0.00 0.00 51 1012.3
20260830191725 79 340 1.0 3.0 0.00 0.00 0.00 51 1012.3
20260830191624 79 96 1.0 3.0 0.00 0.00 0.00 51 1012.3
20260830191605 78 193 1.0 3.0 0.00 0.00 0.00 51 1012.3
20260830191523 79 228 1.0 3.0 0.00 0.00 0.00 51 1012.4
20260830191441 79 263 1.0 3.0 0.00 0.00 0.00 51 1012.3
20260830191316 78 193 1.0 3.0 0.00 0.00 0.00 51 1012.3
20260830191214 78 188 1.0 4.0 0.00 0.00 0.00 51 1012.4
20260830191114 78 177 1.0 4.0 0.00 0.00 0.00 53 1012.4
20260830191013 78 221 1.0 4.0 0.00 0.00 0.00 53 1012.5
20260830190908 78 221 2.0 4.0 0.00 0.00 0.00 53 1012.4
20260830190831 78 221 2.0 4.0 0.00 0.00 0.00 54 1012.4
20260830190807 78 221 2.0 5.0 0.00 0.00 0.00 54 1012.4
20260830190708 78 221 2.0 5.0 0.00 0.00 0.00 53 1012.5
20260830190608 77 211 2.0 5.0 0.00 0.00 0.00 53 1012.5
20260830190506 77 143 2.0 5.0 0.00 0.00 0.00 53 1012.5
20260830190402 77 156 2.0 5.0 0.00 0.00 0.00 54 1012.5
20260830190328 77 148 2.0 5.0 0.00 0.00 0.00 54 1012.5
20260830190302 77 179 2.0 5.0 0.00 0.00 0.00 54 1012.5
20260830190202 76 135 2.0 5.0 0.00 0.00 0.00 55 1012.5
20260830185959 76 129 2.0 5.0 0.00 0.00 0.00 53 1012.6
20260830185858 77 141 2.0 5.0 0.00 0.00 0.00 54 1012.6
20260830185828 77 188 2.0 5.0 0.00 0.00 0.00 53 1012.6
20260830185758 77 224 2.0 5.0 0.00 0.00 0.00 53 1012.6
20260830185657 77 214 2.0 6.0 0.00 0.00 0.00 53 1012.7
20260830185556 77 214 2.0 6.0 0.00 0.00 0.00 53 1012.6
20260830185453 77 217 2.0 6.0 0.00 0.00 0.00 54 1012.6
20260830185348 77 223 2.0 6.0 0.00 0.00 0.00 55 1012.6
20260830185327 77 221 2.0 6.0 0.00 0.00 0.00 55 1012.6
20260830185249 77 204 2.0 6.0 0.00 0.00 0.00 55 1012.6
20260830185149 76 207 2.0 6.0 0.00 0.00 0.00 55 1012.6
20260830185053 76 172 2.0 6.0 0.00 0.00 0.00 55 1012.7
20260830185049 76 144 2.0 6.0 0.00 0.00 0.00 55 1012.6
20260830184948 76 133 2.0 6.0 0.00 0.00 0.00 55 1012.6
20260830184939 76 150 2.0 6.0 0.00 0.00 0.00 55 1012.7
20260830184745 76 217 2.0 5.0 0.00 0.00 0.00 56 1012.7
20260830184644 76 129 1.0 5.0 0.00 0.00 0.00 56 1012.7
20260830184550 76 256 1.0 5.0 0.00 0.00 0.00 56 1012.7
20260830184545 76 156 1.0 5.0 0.00 0.00 0.00 55 1012.7
20260830184448 76 229 1.0 5.0 0.00 0.00 0.00 55 1012.7
20260830184439 76 255 1.0 5.0 0.00 0.00 0.00 56 1012.7
20260830184237 76 327 1.0 4.0 0.00 0.00 0.00 56 1012.7
20260830184137 76 339 1.0 4.0 0.00 0.00 0.00 56 1012.7
20260830184044 75 354 0.0 2.0 0.00 0.00 0.00 57 1012.7
20260830184038 76 339 1.0 4.0 0.00 0.00 0.00 55 1012.7
20260830183937 76 321 1.0 2.0 0.00 0.00 0.00 56 1012.7
20260830183929 76 224 1.0 2.0 0.00 0.00 0.00 55 1012.7
20260830183918 76 214 1.0 2.0 0.00 0.00 0.00 55 1012.7
20260830183735 76 218 1.0 2.0 0.00 0.00 0.00 57 1012.7
20260830183702 75 297 1.0 2.0 0.00 0.00 0.00 57 1012.7
20260830183532 75 295 0.0 2.0 0.00 0.00 0.00 56 1012.7
20260830183443 75 172 0.0 2.0 0.00 0.00 0.00 57 1012.7
20260830183327 75 354 0.0 2.0 0.00 0.00 0.00 57 1012.7
20260830183225 75 354 0.0 2.0 0.00 0.00 0.00 57 1012.7
20260830183124 75 70 0.0 2.0 0.00 0.00 0.00 58 1012.7
20260830183025 75 318 0.0 2.0 0.00 0.00 0.00 58 1012.7
20260830182924 74 318 0.0 2.0 0.00 0.00 0.00 58 1012.7
20260830182818 74 319 1.0 3.0 0.00 0.00 0.00 58 1012.7
20260830182719 74 347 1.0 5.0 0.00 0.00 0.00 59 1012.7
20260830182618 74 347 1.0 5.0 0.00 0.00 0.00 59 1012.7
20260830182554 74 319 1.0 5.0 0.00 0.00 0.00 58 1012.8
20260830182519 74 347 1.0 5.0 0.00 0.00 0.00 59 1012.7
20260830182418 74 319 1.0 5.0 0.00 0.00 0.00 59 1012.8
20260830182312 74 319 1.0 5.0 0.00 0.00 0.00 58 1012.8
20260830182213 74 319 1.0 6.0 0.00 0.00 0.00 58 1012.8
20260830182113 74 141 1.0 6.0 0.00 0.00 0.00 59 1012.8
20260830182012 74 163 1.0 6.0 0.00 0.00 0.00 59 1012.9
20260830181913 73 152 1.0 6.0 0.00 0.00 0.00 58 1012.8
20260830181826 73 221 1.0 6.0 0.00 0.00 0.00 60 1012.8
20260830181811 73 233 1.0 6.0 0.00 0.00 0.00 60 1012.9
20260830181711 73 149 1.0 6.0 0.00 0.00 0.00 60 1012.9
20260830181611 73 150 1.0 6.0 0.00 0.00 0.00 60 1012.9
20260830181509 73 77 2.0 6.0 0.00 0.00 0.00 60 1012.9
20260830181406 73 72 2.0 6.0 0.00 0.00 0.00 59 1012.9
20260830181324 73 73 2.0 6.0 0.00 0.00 0.00 59 1012.9
20260830181301 73 323 2.0 6.0 0.00 0.00 0.00 60 1012.9
20260830181200 73 222 2.0 6.0 0.00 0.00 0.00 60 1012.9
20260830181101 73 233 2.0 6.0 0.00 0.00 0.00 60 1012.9
20260830181001 73 291 2.0 6.0 0.00 0.00 0.00 60 1012.9
20260830180900 73 291 2.0 6.0 0.00 0.00 0.00 60 1012.9
20260830180824 73 291 2.0 6.0 0.00 0.00 0.00 60 1012.9
20260830180801 73 217 2.0 6.0 0.00 0.00 0.00 59 1012.9
20260830180659 73 224 2.0 6.0 0.00 0.00 0.00 60 1012.8
20260830180559 73 218 2.0 6.0 0.00 0.00 0.00 60 1012.9
20260830180457 72 137 2.0 6.0 0.00 0.00 0.00 60 1012.9
20260830180354 73 243 2.0 6.0 0.00 0.00 0.00 59 1012.9
20260830180324 73 197 2.0 6.0 0.00 0.00 0.00 59 1012.9
20260830180248 73 232 2.0 6.0 0.00 0.00 0.00 60 1012.9
20260830180149 73 160 1.0 4.0 0.00 0.00 0.00 60 1012.9
20260830180052 73 210 1.0 4.0 0.00 0.00 0.00 60 1013.0
20260830180044 73 229 2.0 4.0 0.00 0.00 0.00 59 1012.9
20260830175949 73 231 1.0 4.0 0.00 0.00 0.00 60 1012.9
20260830175935 73 229 2.0 4.0 0.00 0.00 0.00 59 1012.9
20260830175747 73 229 1.0 4.0 0.00 0.00 0.00 61 1012.9
20260830175647 73 158 1.0 4.0 0.00 0.00 0.00 61 1012.9
20260830175548 73 225 1.0 4.0 0.00 0.00 0.00 61 1013.0
20260830175445 72 221 1.0 4.0 0.00 0.00 0.00 62 1013.0
20260830175342 72 153 1.0 4.0 0.00 0.00 0.00 62 1013.0
20260830175324 72 152 1.0 4.0 0.00 0.00 0.00 62 1013.0
20260830175251 71 273 2.0 6.0 0.00 0.00 0.00 64 1013.1
20260830175238 72 207 1.0 4.0 0.00 0.00 0.00 62 1012.9
20260830175143 72 195 1.0 4.0 0.00 0.00 0.00 61 1012.9
20260830175134 72 208 1.0 4.0 0.00 0.00 0.00 62 1012.9
20260830174937 72 224 1.0 4.0 0.00 0.00 0.00 62 1013.0
20260830174918 72 316 1.0 6.0 0.00 0.00 0.00 63 1012.9
20260830174908 72 316 1.0 6.0 0.00 0.00 0.00 62 1012.9
20260830174733 71 316 1.0 6.0 0.00 0.00 0.00 62 1013.0
20260830174646 71 314 1.0 6.0 0.00 0.00 0.00 63 1013.0
20260830174533 71 321 1.0 6.0 0.00 0.00 0.00 63 1013.0
20260830174439 71 273 1.0 6.0 0.00 0.00 0.00 63 1013.1
20260830174430 71 273 2.0 6.0 0.00 0.00 0.00 64 1013.1
20260830174313 70 255 2.0 6.0 0.00 0.00 0.00 65 1013.1
20260830174227 71 214 2.0 6.0 0.00 0.00 0.00 64 1013.0
20260830174156 70 204 2.0 6.0 0.00 0.00 0.00 63 1013.0
20260830174024 70 216 2.0 6.0 0.00 0.00 0.00 63 1013.1
20260830173937 70 208 2.0 6.0 0.00 0.00 0.00 63 1013.1
20260830173927 70 255 2.0 6.0 0.00 0.00 0.00 65 1013.1
20260830173718 70 194 2.0 6.0 0.00 0.00 0.00 64 1013.1
20260830173617 70 217 2.0 6.0 0.00 0.00 0.00 64 1013.1
20260830173522 70 243 2.0 6.0 0.00 0.00 0.00 65 1013.1
20260830173416 70 224 2.0 6.0 0.00 0.00 0.00 64 1013.1
20260830173317 70 211 2.0 6.0 0.00 0.00 0.00 64 1013.1
20260830173213 70 253 2.0 6.0 0.00 0.00 0.00 63 1013.1
20260830173110 70 238 2.0 6.0 0.00 0.00 0.00 64 1013.1
20260830173011 70 321 2.0 6.0 0.00 0.00 0.00 62 1013.1
20260830172911 71 316 1.0 6.0 0.00 0.00 0.00 63 1013.1
20260830172811 71 309 1.0 6.0 0.00 0.00 0.00 63 1013.1
20260830172707 71 27 1.0 6.0 0.00 0.00 0.00 64 1013.1
20260830172605 71 263 1.0 6.0 0.00 0.00 0.00 64 1013.1
20260830172505 71 262 1.0 6.0 0.00 0.00 0.00 63 1013.0
20260830172405 71 212 1.0 5.0 0.00 0.00 0.00 63 1013.1
20260830172306 71 169 1.0 5.0 0.00 0.00 0.00 65 1013.0
20260830172202 71 163 1.0 5.0 0.00 0.00 0.00 64 1013.0
20260830172103 70 328 1.0 5.0 0.00 0.00 0.00 65 1013.0
20260830172003 70 343 1.0 6.0 0.00 0.00 0.00 66 1013.0
20260830171900 70 236 1.0 6.0 0.00 0.00 0.00 65 1013.0
20260830171759 70 210 1.0 6.0 0.00 0.00 0.00 65 1013.0
20260830171657 70 240 1.0 6.0 0.00 0.00 0.00 65 1013.0
20260830171557 70 242 1.0 6.0 0.00 0.00 0.00 65 1013.0
20260830171455 70 241 1.0 6.0 0.00 0.00 0.00 65 1013.0
20260830171355 70 242 1.0 6.0 0.00 0.00 0.00 65 1013.0
20260830171253 70 242 1.0 6.0 0.00 0.00 0.00 65 1013.0
20260830171151 70 286 1.0 6.0 0.00 0.00 0.00 65 1013.0
20260830171051 70 301 1.0 6.0 0.00 0.00 0.00 65 1013.0
20260830170950 70 243 1.0 5.0 0.00 0.00 0.00 66 1013.0
20260830170849 69 132 1.0 3.0 0.00 0.00 0.00 66 1013.0
20260830170747 69 132 1.0 3.0 0.00 0.00 0.00 66 1012.9
20260830170645 69 132 1.0 4.0 0.00 0.00 0.00 66 1013.0
20260830170544 69 134 1.0 4.0 0.00 0.00 0.00 66 1013.0
20260830170444 69 326 1.0 4.0 0.00 0.00 0.00 66 1013.0
20260830170342 69 326 1.0 5.0 0.00 0.00 0.00 67 1013.0
20260830170241 69 326 1.0 5.0 0.00 0.00 0.00 66 1013.0
20260830170139 69 326 1.0 5.0 0.00 0.00 0.00 67 1013.0
20260830170038 69 347 1.0 5.0 0.00 0.00 0.00 66 1013.0
20260830165938 69 304 1.0 5.0 0.00 0.00 0.00 66 1013.0
20260830165836 69 252 1.0 5.0 0.00 0.00 0.00 66 1013.1
20260830165735 69 225 1.0 5.0 0.00 0.00 0.00 67 1013.1
20260830165629 69 245 1.0 5.0 0.00 0.00 0.00 67 1013.1
20260830165529 69 245 1.0 5.0 0.00 0.00 0.00 66 1013.1
20260830165429 69 243 1.0 5.0 0.00 0.00 0.00 66 1013.1
20260830165329 69 208 0.0 4.0 0.00 0.00 0.00 66 1013.0
20260830165229 69 229 0.0 2.0 0.00 0.00 0.00 66 1013.1
20260830165127 69 229 0.0 2.0 0.00 0.00 0.00 67 1013.0
20260830165027 69 229 1.0 3.0 0.00 0.00 0.00 66 1013.0
20260830164939 69 229 0.0 3.0 0.00 0.00 0.00 66 1013.0
20260830164927 69 229 1.0 3.0 0.00 0.00 0.00 66 1013.0
20260830164837 69 229 1.0 3.0 0.00 0.00 0.00 66 1013.0
20260830164827 69 229 0.0 3.0 0.00 0.00 0.00 66 1013.0
20260830164619 69 229 0.0 3.0 0.00 0.00 0.00 66 1013.0
20260830164521 69 229 0.0 3.0 0.00 0.00 0.00 66 1013.0
20260830164417 69 229 0.0 3.0 0.00 0.00 0.00 66 1013.0
20260830164318 69 230 0.0 3.0 0.00 0.00 0.00 66 1013.0
20260830164217 69 229 0.0 3.0 0.00 0.00 0.00 67 1013.0
20260830164110 69 231 0.0 3.0 0.00 0.00 0.00 67 1013.0
20260830164011 69 250 0.0 2.0 0.00 0.00 0.00 68 1013.0
20260830163911 68 165 0.0 2.0 0.00 0.00 0.00 68 1013.0
20260830163811 68 215 1.0 3.0 0.00 0.00 0.00 68 1013.0
20260830163711 68 215 1.0 3.0 0.00 0.00 0.00 69 1013.0
20260830163608 68 216 1.0 3.0 0.00 0.00 0.00 69 1013.0
20260830163510 68 215 1.0 3.0 0.00 0.00 0.00 69 1013.0
20260830163409 68 187 1.0 3.0 0.00 0.00 0.00 69 1013.0
20260830163307 67 311 1.0 3.0 0.00 0.00 0.00 68 1012.9
20260830163205 67 311 1.0 3.0 0.00 0.00 0.00 68 1012.9
20260830163103 67 241 1.0 3.0 0.00 0.00 0.00 69 1012.9
20260830163003 67 228 1.0 3.0 0.00 0.00 0.00 69 1012.9
20260830162924 68 229 1.0 3.0 0.00 0.00 0.00 69 1012.9
20260830162901 67 229 1.0 3.0 0.00 0.00 0.00 68 1012.9
20260830162814 68 228 0.0 3.0 0.00 0.00 0.00 68 1012.9
20260830162804 68 229 1.0 3.0 0.00 0.00 0.00 69 1012.9
20260830162555 67 224 1.0 3.0 0.00 0.00 0.00 69 1013.0
20260830162454 67 224 1.0 3.0 0.00 0.00 0.00 69 1012.9
20260830162353 67 224 1.0 3.0 0.00 0.00 0.00 69 1012.9
20260830162252 67 224 1.0 3.0 0.00 0.00 0.00 69 1012.9
20260830162153 67 218 1.0 3.0 0.00 0.00 0.00 69 1013.0
20260830162046 67 230 1.0 3.0 0.00 0.00 0.00 70 1012.9
20260830161947 67 230 1.0 3.0 0.00 0.00 0.00 70 1013.0
20260830161847 67 237 1.0 3.0 0.00 0.00 0.00 70 1013.0
20260830161746 67 232 1.0 3.0 0.00 0.00 0.00 70 1013.0
20260830161647 67 233 1.0 3.0 0.00 0.00 0.00 70 1012.9
20260830161543 66 208 1.0 4.0 0.00 0.00 0.00 70 1012.9
20260830161443 66 222 1.0 5.0 0.00 0.00 0.00 70 1013.0
20260830161343 66 235 1.0 5.0 0.00 0.00 0.00 70 1012.9
20260830161242 66 225 1.0 5.0 0.00 0.00 0.00 70 1012.9
20260830161142 66 195 1.0 5.0 0.00 0.00 0.00 71 1013.0
20260830161036 66 191 1.0 5.0 0.00 0.00 0.00 70 1013.0
20260830160937 66 150 1.0 5.0 0.00 0.00 0.00 70 1013.0
20260830160837 66 221 1.0 5.0 0.00 0.00 0.00 71 1013.0
20260830160737 66 203 1.0 5.0 0.00 0.00 0.00 71 1013.0
20260830160636 66 203 1.0 5.0 0.00 0.00 0.00 70 1013.0
20260830160528 66 226 1.0 5.0 0.00 0.00 0.00 71 1013.0
20260830160429 66 250 1.0 5.0 0.00 0.00 0.00 71 1013.0
20260830160329 66 257 1.0 4.0 0.00 0.00 0.00 72 1013.0
20260830160229 65 218 1.0 4.0 0.00 0.00 0.00 72 1012.9
20260830160130 65 219 1.0 7.0 0.00 0.00 0.00 72 1012.9
20260830160028 65 218 1.0 7.0 0.00 0.00 0.00 72 1012.9
20260830155927 65 217 1.0 7.0 0.00 0.00 0.00 73 1012.9
20260830155827 65 207 2.0 7.0 0.00 0.00 0.00 73 1012.9
20260830155724 65 207 2.0 7.0 0.00 0.00 0.00 73 1013.0
20260830155623 65 203 2.0 7.0 0.00 0.00 0.00 73 1012.9
20260830155517 64 250 2.0 8.0 0.00 0.00 0.00 73 1012.9
20260830155417 64 207 2.0 8.0 0.00 0.00 0.00 73 1012.9
20260830155317 64 239 2.0 8.0 0.00 0.00 0.00 73 1012.9
20260830155217 64 241 2.0 8.0 0.00 0.00 0.00 74 1012.9
20260830155117 64 221 2.0 8.0 0.00 0.00 0.00 74 1013.0
20260830155010 64 228 2.0 8.0 0.00 0.00 0.00 73 1012.9
20260830154911 64 266 3.0 8.0 0.00 0.00 0.00 74 1012.9
20260830154811 64 222 3.0 8.0 0.00 0.00 0.00 74 1012.9
20260830154710 64 212 3.0 8.0 0.00 0.00 0.00 73 1012.9
20260830154611 64 214 2.0 8.0 0.00 0.00 0.00 74 1012.9
20260830154505 64 229 2.0 7.0 0.00 0.00 0.00 74 1012.9
20260830154405 64 242 2.0 7.0 0.00 0.00 0.00 74 1013.0
20260830154305 64 235 3.0 7.0 0.00 0.00 0.00 74 1013.0
20260830154204 64 235 3.0 7.0 0.00 0.00 0.00 74 1012.9
20260830154105 64 231 3.0 7.0 0.00 0.00 0.00 74 1012.9
20260830154001 64 256 2.0 7.0 0.00 0.00 0.00 74 1012.9
20260830153900 64 236 2.0 7.0 0.00 0.00 0.00 74 1012.9
20260830153801 64 217 2.0 6.0 0.00 0.00 0.00 74 1013.0
20260830153701 63 226 2.0 6.0 0.00 0.00 0.00 75 1013.0
20260830153600 63 288 2.0 6.0 0.00 0.00 0.00 75 1013.0
20260830153456 63 212 2.0 6.0 0.00 0.00 0.00 75 1013.0
20260830153356 63 229 2.0 6.0 0.00 0.00 0.00 75 1013.0
20260830153256 63 241 2.0 6.0 0.00 0.00 0.00 75 1013.0
20260830153156 63 174 2.0 6.0 0.00 0.00 0.00 75 1013.0
20260830153059 63 242 1.0 6.0 0.00 0.00 0.00 75 1013.0
20260830153051 63 235 1.0 6.0 0.00 0.00 0.00 75 1013.0
20260830152956 63 210 1.0 6.0 0.00 0.00 0.00 76 1013.0
20260830152856 63 148 2.0 6.0 0.00 0.00 0.00 76 1013.0
20260830152754 63 148 2.0 7.0 0.00 0.00 0.00 76 1013.0
20260830152654 63 194 2.0 7.0 0.00 0.00 0.00 76 1013.1
20260830152553 63 214 2.0 7.0 0.00 0.00 0.00 76 1013.0
20260830152546 63 256 2.0 7.0 0.00 0.00 0.00 76 1013.0
20260830152451 63 233 2.0 7.0 0.00 0.00 0.00 76 1013.1
20260830152352 63 235 2.0 7.0 0.00 0.00 0.00 76 1013.1
20260830152312 62 239 2.0 7.0 0.00 0.00 0.00 76 1013.1
20260830152251 63 239 1.0 7.0 0.00 0.00 0.00 76 1013.1
20260830152209 63 228 2.0 7.0 0.00 0.00 0.00 77 1013.0
20260830152201 62 239 2.0 7.0 0.00 0.00 0.00 76 1013.1
20260830152013 62 239 1.0 5.0 0.00 0.00 0.00 77 1013.0
20260830151951 62 236 2.0 7.0 0.00 0.00 0.00 76 1013.0
20260830151903 63 226 1.0 7.0 0.00 0.00 0.00 76 1013.0
20260830151748 62 243 1.0 5.0 0.00 0.00 0.00 76 1013.1
20260830151649 62 217 1.0 5.0 0.00 0.00 0.00 76 1013.0
20260830151641 62 235 1.0 5.0 0.00 0.00 0.00 77 1013.0
20260830151449 62 229 1.0 4.0 0.00 0.00 0.00 77 1013.0
20260830151347 62 225 1.0 4.0 0.00 0.00 0.00 77 1013.0
20260830151244 62 207 1.0 4.0 0.00 0.00 0.00 77 1013.0
20260830151142 62 226 1.0 4.0 0.00 0.00 0.00 78 1013.0
20260830151041 62 226 1.0 4.0 0.00 0.00 0.00 77 1013.0
20260830151027 62 228 1.0 4.0 0.00 0.00 0.00 78 1013.0
20260830150942 62 212 1.0 4.0 0.00 0.00 0.00 78 1013.0
20260830150841 62 201 1.0 4.0 0.00 0.00 0.00 79 1013.0
20260830150742 62 201 1.0 4.0 0.00 0.00 0.00 79 1013.0
20260830150640 61 201 2.0 8.0 0.00 0.00 0.00 79 1013.0
20260830150541 61 201 2.0 8.0 0.00 0.00 0.00 79 1012.9
20260830150520 61 201 2.0 8.0 0.00 0.00 0.00 79 1013.0
20260830150438 61 212 2.0 8.0 0.00 0.00 0.00 79 1013.0
20260830150335 61 218 2.0 8.0 0.00 0.00 0.00 79 1012.9
20260830150230 61 232 3.0 8.0 0.00 0.00 0.00 79 1012.9
20260830150131 61 231 3.0 8.0 0.00 0.00 0.00 80 1012.9
20260830150030 61 129 3.0 8.0 0.00 0.00 0.00 80 1012.9
20260830150014 61 127 3.0 8.0 0.00 0.00 0.00 80 1012.9
20260830145930 61 231 3.0 8.0 0.00 0.00 0.00 80 1012.9
20260830145829 60 238 3.0 8.0 0.00 0.00 0.00 79 1012.9
20260830145730 60 236 3.0 8.0 0.00 0.00 0.00 80 1012.9
20260830145628 60 229 3.0 7.0 0.00 0.00 0.00 80 1012.9
20260830145528 60 221 3.0 7.0 0.00 0.00 0.00 80 1012.8
20260830145508 60 248 3.0 7.0 0.00 0.00 0.00 80 1012.9
20260830145428 60 210 3.0 7.0 0.00 0.00 0.00 80 1012.9
20260830145328 60 245 3.0 7.0 0.00 0.00 0.00 80 1012.8
20260830145212 60 233 2.0 6.0 0.00 0.00 0.00 80 1012.8
20260830145112 60 226 2.0 6.0 0.00 0.00 0.00 80 1012.8
20260830145018 60 271 2.0 6.0 0.00 0.00 0.00 80 1012.8
20260830145011 60 273 2.0 6.0 0.00 0.00 0.00 80 1012.8
20260830144912 60 273 3.0 7.0 0.00 0.00 0.00 80 1012.8
20260830144811 60 228 3.0 7.0 0.00 0.00 0.00 80 1012.8
20260830144708 60 233 3.0 7.0 0.00 0.00 0.00 80 1012.8
20260830144609 60 226 3.0 7.0 0.00 0.00 0.00 80 1012.8
20260830144509 60 233 3.0 7.0 0.00 0.00 0.00 80 1012.8
20260830144408 60 238 3.0 7.0 0.00 0.00 0.00 80 1012.8
20260830144305 60 236 3.0 7.0 0.00 0.00 0.00 80 1012.8
20260830144200 60 232 3.0 7.0 0.00 0.00 0.00 80 1012.9
20260830144101 60 256 3.0 7.0 0.00 0.00 0.00 79 1012.8
20260830144008 60 229 3.0 7.0 0.00 0.00 0.00 80 1012.8
20260830144001 60 233 3.0 7.0 0.00 0.00 0.00 80 1012.8
20260830143900 60 162 2.0 7.0 0.00 0.00 0.00 79 1012.8
20260830143800 60 216 2.0 5.0 0.00 0.00 0.00 80 1012.8
20260830143655 60 226 2.0 5.0 0.00 0.00 0.00 80 1012.8
20260830143555 60 186 2.0 5.0 0.00 0.00 0.00 80 1012.9
20260830143508 60 171 2.0 5.0 0.00 0.00 0.00 80 1012.9
20260830143455 60 246 2.0 5.0 0.00 0.00 0.00 80 1012.9
20260830143355 60 191 2.0 5.0 0.00 0.00 0.00 80 1012.9
20260830143252 60 212 2.0 5.0 0.00 0.00 0.00 80 1012.8
20260830143153 60 242 2.0 7.0 0.00 0.00 0.00 79 1012.8
20260830143051 60 236 3.0 7.0 0.00 0.00 0.00 79 1012.8
20260830143008 60 228 2.0 7.0 0.00 0.00 0.00 79 1012.8
20260830142954 60 228 2.0 7.0 0.00 0.00 0.00 79 1012.8
20260830142850 60 203 2.0 7.0 0.00 0.00 0.00 79 1012.8
20260830142751 60 138 2.0 7.0 0.00 0.00 0.00 79 1012.8
20260830142652 60 211 2.0 7.0 0.00 0.00 0.00 79 1012.8
20260830142550 60 225 2.0 7.0 0.00 0.00 0.00 79 1012.7
20260830142508 60 226 2.0 7.0 0.00 0.00 0.00 79 1012.7
20260830142449 60 250 2.0 7.0 0.00 0.00 0.00 79 1012.7
20260830142349 60 245 3.0 7.0 0.00 0.00 0.00 79 1012.7
20260830142247 60 203 3.0 7.0 0.00 0.00 0.00 79 1012.6
20260830142147 60 243 2.0 7.0 0.00 0.00 0.00 79 1012.7
20260830142045 60 252 2.0 6.0 0.00 0.00 0.00 79 1012.5
20260830142008 60 235 2.0 6.0 0.00 0.00 0.00 79 1012.6
20260830141945 60 235 2.0 6.0 0.00 0.00 0.00 78 1012.6
20260830141844 60 231 3.0 6.0 0.00 0.00 0.00 78 1012.5
20260830141743 60 230 3.0 6.0 0.00 0.00 0.00 78 1012.5
20260830141643 60 226 3.0 6.0 0.00 0.00 0.00 78 1012.5
20260830141540 60 214 3.0 9.0 0.00 0.00 0.00 78 1012.5
20260830141508 60 132 3.0 9.0 0.00 0.00 0.00 78 1012.5
20260830141441 60 248 3.0 9.0 0.00 0.00 0.00 78 1012.5
20260830141340 60 248 3.0 9.0 0.00 0.00 0.00 78 1012.5
20260830141241 60 243 3.0 9.0 0.00 0.00 0.00 78 1012.4
20260830141141 60 219 3.0 9.0 0.00 0.00 0.00 78 1012.4
20260830141040 60 211 4.0 9.0 0.00 0.00 0.00 78 1012.4
20260830141008 60 226 4.0 9.0 0.00 0.00 0.00 78 1012.4
20260830140937 60 255 4.0 9.0 0.00 0.00 0.00 78 1012.4
20260830140837 60 256 4.0 9.0 0.00 0.00 0.00 78 1012.4
20260830140735 60 238 4.0 9.0 0.00 0.00 0.00 77 1012.4
20260830140635 60 145 4.0 12.0 0.00 0.00 0.00 77 1012.3
20260830140536 60 240 4.0 12.0 0.00 0.00 0.00 77 1012.3
20260830140507 60 229 4.0 12.0 0.00 0.00 0.00 77 1012.4
20260830140435 60 229 4.0 12.0 0.00 0.00 0.00 77 1012.4
20260830140335 60 229 4.0 12.0 0.00 0.00 0.00 77 1012.4
20260830140234 60 245 4.0 12.0 0.00 0.00 0.00 77 1012.4
20260830140133 60 221 4.0 12.0 0.00 0.00 0.00 77 1012.3
20260830140033 60 208 4.0 12.0 0.00 0.00 0.00 77 1012.4
20260830140008 60 235 4.0 12.0 0.00 0.00 0.00 77 1012.4
20260830135933 60 232 4.0 12.0 0.00 0.00 0.00 77 1012.4
20260830135833 60 233 3.0 12.0 0.00 0.00 0.00 76 1012.3
20260830135735 60 260 2.0 7.0 0.00 0.00 0.00 76 1012.3
20260830135731 60 131 3.0 12.0 0.00 0.00 0.00 76 1012.3
20260830135631 60 212 3.0 7.0 0.00 0.00 0.00 76 1012.3
20260830135619 60 240 3.0 7.0 0.00 0.00 0.00 76 1012.3
20260830135430 60 248 2.0 7.0 0.00 0.00 0.00 76 1012.3
20260830135328 60 238 2.0 6.0 0.00 0.00 0.00 76 1012.3
20260830135229 60 244 2.0 6.0 0.00 0.00 0.00 76 1012.2
20260830135128 60 221 2.0 6.0 0.00 0.00 0.00 76 1012.3
20260830135029 60 257 2.0 6.0 0.00 0.00 0.00 75 1012.3
20260830135007 60 239 2.0 6.0 0.00 0.00 0.00 75 1012.2
20260830134929 60 233 2.0 6.0 0.00 0.00 0.00 75 1012.2
20260830134827 60 260 2.0 6.0 0.00 0.00 0.00 75 1012.3
20260830134722 60 229 2.0 6.0 0.00 0.00 0.00 75 1012.3
20260830134623 60 238 3.0 7.0 0.00 0.00 0.00 75 1012.2
20260830134522 60 210 3.0 8.0 0.00 0.00 0.00 75 1012.2
20260830134505 60 233 3.0 8.0 0.00 0.00 0.00 75 1012.2
20260830134423 60 245 3.0 8.0 0.00 0.00 0.00 75 1012.2
20260830134322 60 235 3.0 8.0 0.00 0.00 0.00 75 1012.2
20260830134217 60 232 3.0 8.0 0.00 0.00 0.00 75 1012.2
20260830134116 60 212 3.0 8.0 0.00 0.00 0.00 75 1012.2
20260830134017 60 239 3.0 8.0 0.00 0.00 0.00 75 1012.1
20260830133955 60 239 3.0 8.0 0.00 0.00 0.00 75 1012.1
20260830133916 60 233 3.0 8.0 0.00 0.00 0.00 75 1012.1
20260830133816 60 231 3.0 8.0 0.00 0.00 0.00 75 1012.1
20260830133713 60 225 3.0 8.0 0.00 0.00 0.00 75 1012.1
20260830133611 60 238 3.0 8.0 0.00 0.00 0.00 75 1012.1
20260830133511 60 248 3.0 8.0 0.00 0.00 0.00 75 1012.1
20260830133451 60 233 3.0 8.0 0.00 0.00 0.00 75 1012.1
20260830133411 60 224 3.0 8.0 0.00 0.00 0.00 75 1012.1
20260830133309 60 205 3.0 8.0 0.00 0.00 0.00 75 1012.0
20260830133204 60 231 3.0 8.0 0.00 0.00 0.00 75 1012.0
20260830133105 60 239 3.0 7.0 0.00 0.00 0.00 75 1012.0
20260830133005 60 248 3.0 7.0 0.00 0.00 0.00 74 1012.0
20260830132943 60 211 3.0 7.0 0.00 0.00 0.00 74 1012.0
20260830132904 60 217 2.0 7.0 0.00 0.00 0.00 75 1012.0
20260830132804 60 203 3.0 7.0 0.00 0.00 0.00 74 1012.0
20260830132701 60 235 3.0 7.0 0.00 0.00 0.00 74 1011.9
20260830132626 60 246 1.0 5.0 0.00 0.00 0.00 74 1011.9
20260830132601 60 226 2.0 7.0 0.00 0.00 0.00 74 1011.9
20260830132529 60 248 2.0 7.0 0.00 0.00 0.00 75 1011.9
20260830132516 60 255 2.0 7.0 0.00 0.00 0.00 75 1011.9
20260830132401 60 231 2.0 7.0 0.00 0.00 0.00 74 1011.9
20260830132307 60 225 1.0 7.0 0.00 0.00 0.00 75 1011.9
20260830132259 60 222 1.0 6.0 0.00 0.00 0.00 75 1011.9
20260830132056 60 231 1.0 5.0 0.00 0.00 0.00 74 1011.9
20260830132041 60 245 1.0 5.0 0.00 0.00 0.00 74 1011.9
20260830131853 60 245 1.0 5.0 0.00 0.00 0.00 74 1011.9
20260830131752 60 242 1.0 5.0 0.00 0.00 0.00 74 1011.9
20260830131653 60 221 1.0 5.0 0.00 0.00 0.00 74 1011.8
20260830131551 60 246 2.0 5.0 0.00 0.00 0.00 74 1011.9
20260830131425 60 228 2.0 5.0 0.00 0.00 0.00 74 1011.8
20260830131349 60 228 2.0 5.0 0.00 0.00 0.00 74 1011.8
20260830131246 60 228 2.0 5.0 0.00 0.00 0.00 74 1011.8
20260830131145 60 228 2.0 5.0 0.00 0.00 0.00 74 1011.8
20260830131136 60 235 2.0 5.0 0.00 0.00 0.00 74 1011.8
20260830131043 60 229 2.0 5.0 0.00 0.00 0.00 74 1011.8
20260830131029 60 204 2.0 5.0 0.00 0.00 0.00 74 1011.8
20260830130841 60 240 2.0 5.0 0.00 0.00 0.00 74 1011.8
20260830130740 60 218 2.0 5.0 0.00 0.00 0.00 74 1011.8
20260830130636 60 221 1.0 5.0 0.00 0.00 0.00 74 1011.8
20260830130535 60 226 1.0 5.0 0.00 0.00 0.00 74 1011.8
20260830130435 60 215 1.0 4.0 0.00 0.00 0.00 74 1011.8
20260830130414 60 228 1.0 4.0 0.00 0.00 0.00 74 1011.8
20260830130334 60 215 1.0 4.0 0.00 0.00 0.00 74 1011.8
20260830130234 60 240 1.0 4.0 0.00 0.00 0.00 74 1011.9
20260830130135 60 240 1.0 4.0 0.00 0.00 0.00 74 1011.9
20260830130032 60 148 1.0 4.0 0.00 0.00 0.00 74 1011.9
20260830125933 60 241 1.0 4.0 0.00 0.00 0.00 74 1011.9
20260830125907 60 242 1.0 4.0 0.00 0.00 0.00 74 1011.9
20260830125831 60 241 1.0 4.0 0.00 0.00 0.00 74 1011.9
20260830125727 60 219 1.0 4.0 0.00 0.00 0.00 74 1011.9
20260830125625 60 308 1.0 4.0 0.00 0.00 0.00 74 1011.8
20260830125523 60 307 1.0 4.0 0.00 0.00 0.00 74 1011.8
20260830125423 60 237 1.0 4.0 0.00 0.00 0.00 74 1011.8
20260830125401 60 236 1.0 4.0 0.00 0.00 0.00 74 1011.7
20260830125323 60 236 1.0 4.0 0.00 0.00 0.00 74 1011.7
20260830125222 60 224 1.0 4.0 0.00 0.00 0.00 74 1011.8
20260830125117 60 230 1.0 4.0 0.00 0.00 0.00 74 1011.8
20260830125017 60 255 1.0 4.0 0.00 0.00 0.00 74 1011.8
20260830124917 60 214 1.0 4.0 0.00 0.00 0.00 74 1011.7
20260830124856 60 214 1.0 4.0 0.00 0.00 0.00 74 1011.7
20260830124817 60 214 1.0 4.0 0.00 0.00 0.00 74 1011.7
20260830124716 60 232 0.0 4.0 0.00 0.00 0.00 74 1011.7
20260830124613 60 225 0.0 4.0 0.00 0.00 0.00 74 1011.7
20260830124511 60 238 0.0 2.0 0.00 0.00 0.00 74 1011.7
20260830124411 60 235 0.0 1.0 0.00 0.00 0.00 74 1011.7
20260830124349 60 235 0.0 1.0 0.00 0.00 0.00 74 1011.7
20260830124311 60 235 0.0 2.0 0.00 0.00 0.00 74 1011.7
20260830124211 60 235 0.0 2.0 0.00 0.00 0.00 74 1011.7
20260830124111 60 234 0.0 2.0 0.00 0.00 0.00 74 1011.7
20260830124009 60 235 0.0 2.0 0.00 0.00 0.00 74 1011.7
20260830123906 60 235 0.0 2.0 0.00 0.00 0.00 74 1011.6
20260830123843 60 235 0.0 2.0 0.00 0.00 0.00 74 1011.6
20260830123807 60 235 1.0 2.0 0.00 0.00 0.00 74 1011.6
20260830123704 60 235 1.0 5.0 0.00 0.00 0.00 74 1011.6
20260830123601 60 235 1.0 5.0 0.00 0.00 0.00 74 1011.6
20260830123502 60 235 1.0 5.0 0.00 0.00 0.00 74 1011.6
20260830123338 60 235 1.0 5.0 0.00 0.00 0.00 74 1011.6
20260830123259 60 235 1.0 5.0 0.00 0.00 0.00 74 1011.6
20260830123158 60 235 1.0 5.0 0.00 0.00 0.00 74 1011.6
20260830123055 60 235 1.0 5.0 0.00 0.00 0.00 74 1011.6
20260830122954 60 235 1.0 5.0 0.00 0.00 0.00 74 1011.6
20260830122831 60 235 1.0 5.0 0.00 0.00 0.00 74 1011.6
20260830122753 60 242 1.0 5.0 0.00 0.00 0.00 75 1011.6
20260830122654 60 224 1.0 5.0 0.00 0.00 0.00 75 1011.6
20260830122549 60 239 1.0 3.0 0.00 0.00 0.00 75 1011.6
20260830122449 60 201 1.0 4.0 0.00 0.00 0.00 75 1011.6
20260830122348 60 230 1.0 4.0 0.00 0.00 0.00 76 1011.6
20260830122325 60 236 1.0 4.0 0.00 0.00 0.00 76 1011.6
20260830122249 59 236 1.0 4.0 0.00 0.00 0.00 76 1011.6
20260830122146 59 238 1.0 4.0 0.00 0.00 0.00 76 1011.6
20260830122041 59 218 0.0 4.0 0.00 0.00 0.00 76 1011.7
20260830121941 59 218 0.0 4.0 0.00 0.00 0.00 76 1011.7
20260830121840 59 238 0.0 4.0 0.00 0.00 0.00 77 1011.6
20260830121819 59 236 0.0 4.0 0.00 0.00 0.00 77 1011.6
20260830121741 59 236 0.0 4.0 0.00 0.00 0.00 77 1011.6
20260830121640 59 238 0.0 4.0 0.00 0.00 0.00 77 1011.6
20260830121537 58 235 0.0 3.0 0.00 0.00 0.00 78 1011.6
20260830121437 58 224 0.0 0.0 0.00 0.00 0.00 78 1011.6
20260830121337 58 223 0.0 0.0 0.00 0.00 0.00 78 1011.6
20260830121313 58 224 0.0 0.0 0.00 0.00 0.00 78 1011.6
20260830121237 58 224 0.0 0.0 0.00 0.00 0.00 78 1011.6
20260830121134 58 224 0.0 0.0 0.00 0.00 0.00 77 1011.6
20260830121035 58 224 0.0 0.0 0.00 0.00 0.00 77 1011.6
20260830120933 58 224 0.0 0.0 0.00 0.00 0.00 77 1011.6
20260830120833 59 224 0.0 0.0 0.00 0.00 0.00 76 1011.7
20260830120808 59 224 0.0 0.0 0.00 0.00 0.00 76 1011.6
20260830120731 59 223 0.0 0.0 0.00 0.00 0.00 76 1011.6
20260830120628 59 224 0.0 0.0 0.00 0.00 0.00 76 1011.7
20260830120529 59 224 0.0 0.0 0.00 0.00 0.00 76 1011.7
20260830120427 59 224 0.0 0.0 0.00 0.00 0.00 77 1011.7
20260830120327 59 223 0.0 0.0 0.00 0.00 0.00 76 1011.7
20260830120314 59 224 0.0 0.0 0.00 0.00 0.00 76 1011.7
20260830120225 59 224 0.0 0.0 0.00 0.00 0.00 76 1011.7
20260830120122 59 224 0.0 0.0 0.00 0.00 0.00 76 1011.7
20260830120017 59 224 0.0 0.0 0.00 0.00 0.00 76 1011.7
20260830115917 59 224 0.0 0.0 0.00 0.00 0.00 76 1011.7
20260830115817 59 224 0.0 0.0 0.00 0.00 0.00 76 1011.7
20260830115756 59 224 0.0 0.0 0.00 0.00 0.00 76 1011.7
20260830115717 59 224 0.0 0.0 0.00 0.00 0.00 76 1011.7
20260830115616 59 224 0.0 0.0 0.00 0.00 0.00 76 1011.6
20260830115514 59 224 0.0 0.0 0.00 0.00 0.00 76 1011.6
20260830115413 59 224 0.0 0.0 0.00 0.00 0.00 76 1011.6
20260830115313 59 224 0.0 0.0 0.00 0.00 0.00 76 1011.6
20260830115249 59 224 0.0 0.0 0.00 0.00 0.00 76 1011.6
20260830115213 59 224 0.0 0.0 0.00 0.00 0.00 76 1011.6
20260830115110 59 224 0.0 0.0 0.00 0.00 0.00 76 1011.5
20260830115009 59 224 0.0 0.0 0.00 0.00 0.00 76 1011.5
20260830114909 59 224 0.0 0.0 0.00 0.00 0.00 76 1011.5
20260830114807 59 224 0.0 0.0 0.00 0.00 0.00 76 1011.5
20260830114743 59 224 0.0 0.0 0.00 0.00 0.00 76 1011.5
20260830114707 59 224 0.0 0.0 0.00 0.00 0.00 76 1011.6
20260830114604 59 224 0.0 0.0 0.00 0.00 0.00 76 1011.5
20260830114501 59 224 0.0 0.0 0.00 0.00 0.00 76 1011.5
20260830114358 59 224 0.0 0.0 0.00 0.00 0.00 76 1011.5
20260830114237 59 224 0.0 0.0 0.00 0.00 0.00 76 1011.6
20260830114159 59 223 0.0 0.0 0.00 0.00 0.00 76 1011.5
20260830114059 59 224 0.0 0.0 0.00 0.00 0.00 76 1011.5
20260830113959 59 224 0.0 0.0 0.00 0.00 0.00 76 1011.5
20260830113857 59 224 0.0 0.0 0.00 0.00 0.00 76 1011.5
20260830113738 59 224 0.0 0.0 0.00 0.00 0.00 75 1011.5
20260830113655 59 224 0.0 0.0 0.00 0.00 0.00 75 1011.4
20260830113552 59 224 0.0 0.0 0.00 0.00 0.00 75 1011.5
20260830113448 60 224 0.0 0.0 0.00 0.00 0.00 74 1011.5
20260830113348 60 224 0.0 0.0 0.00 0.00 0.00 74 1011.5
20260830113238 60 224 0.0 0.0 0.00 0.00 0.00 74 1011.5
20260830113147 60 223 0.0 0.0 0.00 0.00 0.00 74 1011.5
20260830113045 60 224 0.0 0.0 0.00 0.00 0.00 74 1011.5
20260830112945 60 224 0.0 0.0 0.00 0.00 0.00 74 1011.5
20260830112845 60 224 0.0 0.0 0.00 0.00 0.00 74 1011.6
20260830112737 60 224 0.0 0.0 0.00 0.00 0.00 74 1011.5
20260830112643 60 224 0.0 0.0 0.00 0.00 0.00 73 1011.6
20260830112540 60 224 0.0 0.0 0.00 0.00 0.00 73 1011.5
20260830112441 60 224 0.0 0.0 0.00 0.00 0.00 73 1011.5
20260830112338 60 224 0.0 0.0 0.00 0.00 0.00 72 1011.5
20260830112238 60 224 0.0 0.0 0.00 0.00 0.00 72 1011.5
20260830112137 60 224 0.0 0.0 0.00 0.00 0.00 72 1011.5
20260830112034 61 224 0.0 0.0 0.00 0.00 0.00 72 1011.5
20260830111930 61 224 0.0 1.0 0.00 0.00 0.00 72 1011.5
20260830111831 61 224 0.0 1.0 0.00 0.00 0.00 72 1011.5
20260830111731 61 224 0.0 1.0 0.00 0.00 0.00 72 1011.5
20260830111631 61 224 0.0 1.0 0.00 0.00 0.00 71 1011.5
20260830111528 61 224 0.0 3.0 0.00 0.00 0.00 71 1011.5
20260830111425 61 224 0.0 3.0 0.00 0.00 0.00 70 1011.5
20260830111322 61 224 0.0 3.0 0.00 0.00 0.00 70 1011.5
20260830111236 61 224 0.0 3.0 0.00 0.00 0.00 71 1011.5
20260830111222 61 223 0.0 3.0 0.00 0.00 0.00 71 1011.5
20260830111123 61 224 1.0 3.0 0.00 0.00 0.00 71 1011.5
20260830111022 62 224 1.0 4.0 0.00 0.00 0.00 70 1011.5
20260830110918 62 224 1.0 4.0 0.00 0.00 0.00 70 1011.5
20260830110817 62 224 1.0 4.0 0.00 0.00 0.00 70 1011.5
20260830110747 62 224 1.0 4.0 0.00 0.00 0.00 70 1011.5
20260830110717 62 224 1.0 4.0 0.00 0.00 0.00 70 1011.5
20260830110617 62 201 1.0 4.0 0.00 0.00 0.00 70 1011.5
20260830110516 62 240 1.0 4.0 0.00 0.00 0.00 70 1011.5
20260830110413 62 240 1.0 4.0 0.00 0.00 0.00 70 1011.4
20260830110310 62 240 1.0 4.0 0.00 0.00 0.00 70 1011.4
20260830110211 62 240 1.0 4.0 0.00 0.00 0.00 70 1011.4
20260830110110 62 232 1.0 4.0 0.00 0.00 0.00 70 1011.4
20260830110010 62 236 1.0 3.0 0.00 0.00 0.00 70 1011.4
20260830105909 62 236 1.0 3.0 0.00 0.00 0.00 70 1011.4
20260830105809 62 222 1.0 3.0 0.00 0.00 0.00 70 1011.4
20260830105729 62 222 1.0 3.0 0.00 0.00 0.00 70 1011.4
20260830105709 62 222 1.0 3.0 0.00 0.00 0.00 70 1011.3
20260830105606 62 236 1.0 3.0 0.00 0.00 0.00 70 1011.4
20260830105504 62 231 1.0 3.0 0.00 0.00 0.00 70 1011.4
20260830105401 62 233 1.0 3.0 0.00 0.00 0.00 70 1011.4
20260830105300 62 221 1.0 3.0 0.00 0.00 0.00 70 1011.4
20260830105230 62 221 1.0 3.0 0.00 0.00 0.00 70 1011.4
20260830105201 62 233 1.0 3.0 0.00 0.00 0.00 70 1011.3
20260830105059 62 233 1.0 3.0 0.00 0.00 0.00 70 1011.3
20260830104955 62 231 1.0 3.0 0.00 0.00 0.00 70 1011.3
20260830104853 62 190 1.0 3.0 0.00 0.00 0.00 70 1011.3
20260830104751 62 214 1.0 3.0 0.00 0.00 0.00 70 1011.3
20260830104728 62 232 1.0 3.0 0.00 0.00 0.00 70 1011.3
20260830104650 62 232 1.0 3.0 0.00 0.00 0.00 70 1011.4
20260830104551 62 219 1.0 3.0 0.00 0.00 0.00 70 1011.3
20260830104451 62 195 1.0 3.0 0.00 0.00 0.00 70 1011.4
20260830104348 62 140 1.0 3.0 0.00 0.00 0.00 69 1011.3
20260830104249 62 139 1.0 3.0 0.00 0.00 0.00 69 1011.3
20260830104226 62 140 1.0 3.0 0.00 0.00 0.00 69 1011.3
20260830104147 62 140 1.0 3.0 0.00 0.00 0.00 69 1011.3
20260830104047 62 214 1.0 3.0 0.00 0.00 0.00 69 1011.3
20260830103945 62 214 1.0 3.0 0.00 0.00 0.00 69 1011.4
20260830103841 62 214 1.0 3.0 0.00 0.00 0.00 69 1011.4
20260830103739 62 221 1.0 3.0 0.00 0.00 0.00 69 1011.4
20260830103723 62 215 1.0 3.0 0.00 0.00 0.00 69 1011.4
20260830103638 62 215 1.0 3.0 0.00 0.00 0.00 69 1011.4
20260830103539 62 233 1.0 3.0 0.00 0.00 0.00 69 1011.4
20260830103437 62 233 1.0 3.0 0.00 0.00 0.00 68 1011.4
20260830103339 62 233 1.0 3.0 0.00 0.00 0.00 68 1011.4
20260830103236 62 233 1.0 3.0 0.00 0.00 0.00 68 1011.4
20260830103224 62 223 1.0 3.0 0.00 0.00 0.00 68 1011.4
20260830103137 62 212 1.0 3.0 0.00 0.00 0.00 68 1011.4
20260830103033 63 199 1.0 3.0 0.00 0.00 0.00 68 1011.4
20260830102932 63 214 1.0 3.0 0.00 0.00 0.00 68 1011.4
20260830102831 63 231 2.0 3.0 0.00 0.00 0.00 68 1011.4
20260830102734 63 230 2.0 3.0 0.00 0.00 0.00 68 1011.4
20260830102724 63 231 2.0 3.0 0.00 0.00 0.00 68 1011.4
20260830102631 63 220 2.0 3.0 0.00 0.00 0.00 68 1011.4
20260830102529 63 211 2.0 3.0 0.00 0.00 0.00 68 1011.3
20260830102425 63 238 2.0 3.0 0.00 0.00 0.00 68 1011.3
20260830102327 63 217 2.0 3.0 0.00 0.00 0.00 68 1011.3
20260830102225 63 226 2.0 3.0 0.00 0.00 0.00 68 1011.4
20260830102125 63 222 2.0 3.0 0.00 0.00 0.00 68 1011.4
20260830102023 63 235 2.0 3.0 0.00 0.00 0.00 68 1011.3
20260830101920 63 222 2.0 4.0 0.00 0.00 0.00 67 1011.4
20260830101817 63 236 1.0 4.0 0.00 0.00 0.00 67 1011.4
20260830101724 63 242 1.0 4.0 0.00 0.00 0.00 67 1011.4
20260830101715 63 226 1.0 4.0 0.00 0.00 0.00 67 1011.4
20260830101615 63 238 1.0 4.0 0.00 0.00 0.00 67 1011.4
20260830101515 63 236 1.0 4.0 0.00 0.00 0.00 67 1011.5
20260830101414 63 238 1.0 4.0 0.00 0.00 0.00 67 1011.5
20260830101309 63 229 2.0 4.0 0.00 0.00 0.00 67 1011.5
20260830101209 63 170 2.0 4.0 0.00 0.00 0.00 67 1011.5
20260830101109 63 194 2.0 4.0 0.00 0.00 0.00 67 1011.5
20260830101008 63 233 2.0 4.0 0.00 0.00 0.00 67 1011.4
20260830100907 63 203 2.0 4.0 0.00 0.00 0.00 67 1011.5
20260830100807 63 246 2.0 4.0 0.00 0.00 0.00 67 1011.4
20260830100722 63 248 2.0 4.0 0.00 0.00 0.00 67 1011.4
20260830100705 63 248 2.0 4.0 0.00 0.00 0.00 67 1011.4
20260830100602 63 233 2.0 4.0 0.00 0.00 0.00 66 1011.4
20260830100503 63 190 2.0 4.0 0.00 0.00 0.00 66 1011.4
20260830100401 63 235 2.0 4.0 0.00 0.00 0.00 66 1011.4
20260830100257 63 231 2.0 4.0 0.00 0.00 0.00 66 1011.5
20260830100214 63 243 2.0 4.0 0.00 0.00 0.00 66 1011.5
20260830100157 64 236 2.0 5.0 0.00 0.00 0.00 66 1011.5
20260830100057 64 221 2.0 5.0 0.00 0.00 0.00 66 1011.4
20260830095955 64 245 2.0 5.0 0.00 0.00 0.00 66 1011.5
20260830095939 64 228 2.0 5.0 0.00 0.00 0.00 66 1011.5
20260830095852 64 236 2.0 5.0 0.00 0.00 0.00 66 1011.5
20260830095818 64 239 2.0 5.0 0.00 0.00 0.00 66 1011.4
20260830095648 64 228 2.0 5.0 0.00 0.00 0.00 66 1011.5
20260830095548 64 219 2.0 5.0 0.00 0.00 0.00 66 1011.5
20260830095446 64 238 2.0 5.0 0.00 0.00 0.00 66 1011.5
20260830095346 64 224 2.0 5.0 0.00 0.00 0.00 66 1011.4
20260830095247 64 154 2.0 5.0 0.00 0.00 0.00 66 1011.5
20260830095201 64 204 2.0 4.0 0.00 0.00 0.00 66 1011.4
20260830095146 64 212 2.0 4.0 0.00 0.00 0.00 66 1011.4
20260830095045 64 230 2.0 4.0 0.00 0.00 0.00 66 1011.4
20260830094943 64 225 2.0 4.0 0.00 0.00 0.00 66 1011.4
20260830094840 64 228 2.0 4.0 0.00 0.00 0.00 66 1011.4
20260830094734 64 246 2.0 4.0 0.00 0.00 0.00 66 1011.4
20260830094655 64 238 2.0 4.0 0.00 0.00 0.00 66 1011.4
20260830094635 64 231 2.0 4.0 0.00 0.00 0.00 66 1011.4
20260830094535 64 221 2.0 4.0 0.00 0.00 0.00 66 1011.4
20260830094435 64 228 3.0 4.0 0.00 0.00 0.00 66 1011.4
20260830094334 64 224 3.0 4.0 0.00 0.00 0.00 66 1011.4
20260830094231 64 208 3.0 6.0 0.00 0.00 0.00 66 1011.4
20260830094150 64 217 3.0 6.0 0.00 0.00 0.00 66 1011.4
20260830094129 64 246 3.0 6.0 0.00 0.00 0.00 66 1011.4
20260830094029 64 220 3.0 6.0 0.00 0.00 0.00 65 1011.5
20260830093928 64 238 3.0 6.0 0.00 0.00 0.00 66 1011.5
20260830093828 64 207 3.0 6.0 0.00 0.00 0.00 65 1011.4
20260830093725 64 240 3.0 6.0 0.00 0.00 0.00 65 1011.5
20260830093644 64 229 3.0 6.0 0.00 0.00 0.00 65 1011.4
20260830093625 64 235 3.0 6.0 0.00 0.00 0.00 65 1011.4
20260830093524 64 217 3.0 6.0 0.00 0.00 0.00 65 1011.4
20260830093424 64 259 3.0 6.0 0.00 0.00 0.00 65 1011.5
20260830093322 64 222 3.0 5.0 0.00 0.00 0.00 65 1011.4
20260830093217 64 259 3.0 5.0 0.00 0.00 0.00 65 1011.4
20260830093137 64 233 3.0 5.0 0.00 0.00 0.00 65 1011.4
20260830093116 64 246 3.0 5.0 0.00 0.00 0.00 65 1011.5
20260830093019 64 231 3.0 5.0 0.00 0.00 0.00 65 1011.5
20260830092916 64 194 3.0 5.0 0.00 0.00 0.00 65 1011.5
20260830092816 64 242 3.0 5.0 0.00 0.00 0.00 65 1011.5
20260830092711 64 215 3.0 5.0 0.00 0.00 0.00 65 1011.5
20260830092631 64 226 3.0 5.0 0.00 0.00 0.00 65 1011.5
20260830092610 64 233 3.0 5.0 0.00 0.00 0.00 65 1011.5
20260830092511 64 246 2.0 5.0 0.00 0.00 0.00 65 1011.5
20260830092411 64 200 2.0 4.0 0.00 0.00 0.00 65 1011.5
20260830092346 64 235 2.0 4.0 0.00 0.00 0.00 65 1011.5
20260830092312 64 231 2.0 4.0 0.00 0.00 0.00 65 1011.5
20260830092235 64 205 2.0 4.0 0.00 0.00 0.00 65 1011.5
20260830092108 64 235 2.0 4.0 0.00 0.00 0.00 65 1011.4
20260830092005 64 235 2.0 4.0 0.00 0.00 0.00 65 1011.5
20260830091905 64 238 2.0 4.0 0.00 0.00 0.00 65 1011.5
20260830091804 64 236 2.0 4.0 0.00 0.00 0.00 65 1011.4
20260830091658 64 242 2.0 4.0 0.00 0.00 0.00 65 1011.5
20260830091619 64 238 2.0 4.0 0.00 0.00 0.00 65 1011.5
20260830091600 64 243 2.0 4.0 0.00 0.00 0.00 65 1011.4
20260830091458 64 226 2.0 4.0 0.00 0.00 0.00 65 1011.5
20260830091359 64 246 2.0 4.0 0.00 0.00 0.00 65 1011.4
20260830091258 64 232 2.0 4.0 0.00 0.00 0.00 65 1011.4
20260830091157 64 228 2.0 6.0 0.00 0.00 0.00 65 1011.4
20260830091113 64 236 2.0 6.0 0.00 0.00 0.00 66 1011.4
20260830091056 64 231 2.0 6.0 0.00 0.00 0.00 66 1011.4
20260830090955 64 217 2.0 6.0 0.00 0.00 0.00 66 1011.4
20260830090855 64 264 2.0 6.0 0.00 0.00 0.00 66 1011.4
20260830090752 64 207 2.0 6.0 0.00 0.00 0.00 66 1011.5
20260830090653 64 207 2.0 6.0 0.00 0.00 0.00 66 1011.5
20260830090607 64 212 2.0 6.0 0.00 0.00 0.00 66 1011.5
20260830090549 64 197 2.0 6.0 0.00 0.00 0.00 66 1011.5
20260830090451 64 233 2.0 6.0 0.00 0.00 0.00 66 1011.5
20260830090349 64 211 2.0 6.0 0.00 0.00 0.00 66 1011.5
20260830090246 64 221 2.0 6.0 0.00 0.00 0.00 66 1011.5
20260830090147 64 233 2.0 5.0 0.00 0.00 0.00 66 1011.5
20260830090045 64 225 1.0 5.0 0.00 0.00 0.00 66 1011.5
20260830085945 64 203 1.0 4.0 0.00 0.00 0.00 67 1011.4
20260830085843 64 218 1.0 4.0 0.00 0.00 0.00 67 1011.5
20260830085740 64 167 1.0 4.0 0.00 0.00 0.00 67 1011.5
20260830085637 64 198 1.0 3.0 0.00 0.00 0.00 67 1011.5
20260830085556 64 214 1.0 3.0 0.00 0.00 0.00 67 1011.5
20260830085536 64 201 1.0 3.0 0.00 0.00 0.00 67 1011.5
20260830085436 64 216 1.0 2.0 0.00 0.00 0.00 67 1011.5
20260830085337 64 162 0.0 2.0 0.00 0.00 0.00 67 1011.5
20260830085234 64 214 0.0 2.0 0.00 0.00 0.00 67 1011.5
20260830085132 64 204 0.0 1.0 0.00 0.00 0.00 67 1011.5
20260830085030 64 204 0.0 2.0 0.00 0.00 0.00 67 1011.5
20260830084930 64 219 0.0 2.0 0.00 0.00 0.00 67 1011.6
20260830084829 64 219 0.0 2.0 0.00 0.00 0.00 67 1011.6
20260830084729 64 219 0.0 2.0 0.00 0.00 0.00 66 1011.5
20260830084625 64 219 0.0 2.0 0.00 0.00 0.00 66 1011.6
20260830084544 64 219 0.0 2.0 0.00 0.00 0.00 66 1011.5
20260830084524 64 220 0.0 2.0 0.00 0.00 0.00 66 1011.5
20260830084423 64 219 0.0 2.0 0.00 0.00 0.00 66 1011.5
20260830084323 64 219 0.0 2.0 0.00 0.00 0.00 66 1011.5
20260830084221 64 219 0.0 2.0 0.00 0.00 0.00 66 1011.5
20260830084116 64 219 0.0 2.0 0.00 0.00 0.00 66 1011.5
20260830084037 64 211 0.0 2.0 0.00 0.00 0.00 66 1011.5
20260830084017 64 211 0.0 2.0 0.00 0.00 0.00 66 1011.6
20260830083916 64 197 0.0 3.0 0.00 0.00 0.00 66 1011.6
20260830083817 64 198 1.0 5.0 0.00 0.00 0.00 66 1011.6
20260830083716 64 197 1.0 5.0 0.00 0.00 0.00 66 1011.6
20260830083610 64 197 1.0 5.0 0.00 0.00 0.00 66 1011.7
20260830083531 64 197 1.0 5.0 0.00 0.00 0.00 66 1011.7
20260830083511 64 198 1.0 5.0 0.00 0.00 0.00 66 1011.7
20260830083411 64 198 1.0 5.0 0.00 0.00 0.00 66 1011.7
20260830083310 64 197 1.0 5.0 0.00 0.00 0.00 66 1011.6
20260830083210 64 197 1.0 5.0 0.00 0.00 0.00 66 1011.6
20260830083105 64 208 1.0 5.0 0.00 0.00 0.00 66 1011.6
20260830083038 64 239 1.0 5.0 0.00 0.00 0.00 66 1011.6
20260830083005 64 232 1.0 5.0 0.00 0.00 0.00 66 1011.6
20260830082904 64 229 0.0 5.0 0.00 0.00 0.00 66 1011.6
20260830082805 64 203 0.0 4.0 0.00 0.00 0.00 67 1011.6
20260830082704 64 211 0.0 1.0 0.00 0.00 0.00 67 1011.6
20260830082605 64 203 0.0 1.0 0.00 0.00 0.00 67 1011.6
20260830082520 64 203 0.0 1.0 0.00 0.00 0.00 67 1011.5
20260830082503 64 171 0.0 1.0 0.00 0.00 0.00 67 1011.5
20260830082402 64 170 0.0 1.0 0.00 0.00 0.00 67 1011.5
20260830082301 64 170 0.0 1.0 0.00 0.00 0.00 67 1011.5
20260830082238 64 170 0.0 1.0 0.00 0.00 0.00 67 1011.5
20260830082158 64 170 0.0 1.0 0.00 0.00 0.00 67 1011.5
20260830082123 64 170 0.0 1.0 0.00 0.00 0.00 67 1011.5
20260830081955 64 170 0.0 1.0 0.00 0.00 0.00 67 1011.5
20260830081855 64 170 0.0 2.0 0.00 0.00 0.00 67 1011.5
20260830081753 64 171 0.0 2.0 0.00 0.00 0.00 67 1011.5
20260830081652 64 170 0.0 2.0 0.00 0.00 0.00 67 1011.5
20260830081549 64 170 0.0 2.0 0.00 0.00 0.00 67 1011.5
20260830081507 64 170 0.0 2.0 0.00 0.00 0.00 67 1011.4
20260830081454 64 170 0.0 2.0 0.00 0.00 0.00 67 1011.4
20260830081442 64 142 0.0 3.0 0.00 0.00 0.00 67 1011.4
20260830081346 64 170 1.0 3.0 0.00 0.00 0.00 67 1011.4
20260830081330 64 116 1.0 3.0 0.00 0.00 0.00 67 1011.4
20260830081146 64 142 1.0 3.0 0.00 0.00 0.00 67 1011.4
20260830081111 64 143 1.0 3.0 0.00 0.00 0.00 67 1011.4
20260830080943 64 143 0.0 3.0 0.00 0.00 0.00 67 1011.4
20260830080843 64 204 0.0 3.0 0.00 0.00 0.00 67 1011.4
20260830080743 64 204 1.0 3.0 0.00 0.00 0.00 67 1011.4
20260830080720 64 136 0.0 3.0 0.00 0.00 0.00 68 1011.4
20260830080640 64 204 0.0 3.0 0.00 0.00 0.00 67 1011.4
20260830080606 64 187 0.0 3.0 0.00 0.00 0.00 67 1011.5
20260830080439 64 168 0.0 3.0 0.00 0.00 0.00 68 1011.4
20260830080339 64 190 0.0 2.0 0.00 0.00 0.00 68 1011.4
20260830080237 64 190 0.0 3.0 0.00 0.00 0.00 68 1011.5
20260830080134 64 190 0.0 3.0 0.00 0.00 0.00 68 1011.4
20260830080031 64 190 0.0 3.0 0.00 0.00 0.00 68 1011.4
20260830075929 64 190 1.0 3.0 0.00 0.00 0.00 68 1011.4
20260830075829 64 190 1.0 3.0 0.00 0.00 0.00 68 1011.5
20260830075728 64 208 1.0 4.0 0.00 0.00 0.00 68 1011.4
20260830075628 64 208 1.0 4.0 0.00 0.00 0.00 68 1011.4
20260830075529 64 208 1.0 4.0 0.00 0.00 0.00 68 1011.4
20260830075427 63 208 1.0 4.0 0.00 0.00 0.00 68 1011.4
20260830075327 63 208 1.0 4.0 0.00 0.00 0.00 68 1011.4
20260830075225 63 124 1.0 4.0 0.00 0.00 0.00 69 1011.4
20260830075121 63 124 1.0 4.0 0.00 0.00 0.00 69 1011.5
20260830075020 63 169 0.0 4.0 0.00 0.00 0.00 69 1011.5
20260830074937 63 133 0.0 4.0 0.00 0.00 0.00 69 1011.5
20260830074918 63 222 0.0 4.0 0.00 0.00 0.00 69 1011.5
20260830074817 63 190 0.0 3.0 0.00 0.00 0.00 69 1011.5
20260830074716 63 143 0.0 1.0 0.00 0.00 0.00 70 1011.5
20260830074654 63 156 0.0 1.0 0.00 0.00 0.00 70 1011.5
20260830074615 63 156 0.0 1.0 0.00 0.00 0.00 70 1011.5
20260830074546 63 156 0.0 1.0 0.00 0.00 0.00 70 1011.5
20260830074411 63 156 0.0 1.0 0.00 0.00 0.00 70 1011.4
20260830074311 63 156 0.0 1.0 0.00 0.00 0.00 70 1011.5
20260830074210 63 114 0.0 1.0 0.00 0.00 0.00 70 1011.5
20260830074110 63 114 0.0 1.0 0.00 0.00 0.00 70 1011.5
20260830074006 63 114 0.0 1.0 0.00 0.00 0.00 70 1011.4
20260830073925 63 114 0.0 1.0 0.00 0.00 0.00 70 1011.4
20260830073905 63 115 0.0 1.0 0.00 0.00 0.00 70 1011.4
20260830073805 63 114 0.0 1.0 0.00 0.00 0.00 70 1011.4
20260830073704 63 114 0.0 0.0 0.00 0.00 0.00 69 1011.5
20260830073639 63 114 0.0 1.0 0.00 0.00 0.00 69 1011.5
20260830073604 63 114 0.0 0.0 0.00 0.00 0.00 69 1011.5
20260830073532 63 114 0.0 0.0 0.00 0.00 0.00 69 1011.5
20260830073401 63 115 0.0 1.0 0.00 0.00 0.00 69 1011.5
20260830073301 63 114 0.0 1.0 0.00 0.00 0.00 68 1011.5
20260830073201 64 114 0.0 1.0 0.00 0.00 0.00 68 1011.5
20260830073058 64 115 0.0 1.0 0.00 0.00 0.00 68 1011.5
20260830072958 64 115 0.0 1.0 0.00 0.00 0.00 68 1011.5
20260830072913 64 114 0.0 1.0 0.00 0.00 0.00 68 1011.5
20260830072857 64 114 0.0 1.0 0.00 0.00 0.00 68 1011.5
20260830072757 64 114 0.0 1.0 0.00 0.00 0.00 68 1011.6
20260830072657 64 114 0.0 1.0 0.00 0.00 0.00 68 1011.5
20260830072627 64 101 0.0 1.0 0.00 0.00 0.00 68 1011.5
20260830072557 64 115 0.0 1.0 0.00 0.00 0.00 68 1011.5
20260830072523 64 114 0.0 1.0 0.00 0.00 0.00 68 1011.5
20260830072355 64 101 0.0 1.0 0.00 0.00 0.00 68 1011.5
20260830072255 64 101 0.0 1.0 0.00 0.00 0.00 68 1011.5
20260830072152 64 101 0.0 1.0 0.00 0.00 0.00 68 1011.5
20260830072051 64 101 0.0 1.0 0.00 0.00 0.00 68 1011.5
20260830071953 64 131 0.0 2.0 0.00 0.00 0.00 68 1011.5
20260830071848 64 131 0.0 2.0 0.00 0.00 0.00 68 1011.5
20260830071751 64 131 0.0 2.0 0.00 0.00 0.00 68 1011.5
20260830071648 64 131 0.0 2.0 0.00 0.00 0.00 67 1011.5
20260830071547 64 131 0.0 2.0 0.00 0.00 0.00 67 1011.5
20260830071445 64 131 0.0 2.0 0.00 0.00 0.00 67 1011.5
20260830071343 64 131 0.0 2.0 0.00 0.00 0.00 67 1011.4
20260830071243 64 131 0.0 2.0 0.00 0.00 0.00 67 1011.4
20260830071140 64 131 0.0 2.0 0.00 0.00 0.00 67 1011.4
20260830071059 64 203 0.0 1.0 0.00 0.00 0.00 67 1011.6
20260830071040 64 131 0.0 2.0 0.00 0.00 0.00 67 1011.4
20260830071001 64 131 0.0 2.0 0.00 0.00 0.00 67 1011.5
20260830070951 64 131 0.0 2.0 0.00 0.00 0.00 67 1011.5
20260830070837 64 131 0.0 2.0 0.00 0.00 0.00 67 1011.5
20260830070738 64 131 0.0 2.0 0.00 0.00 0.00 67 1011.4
20260830070727 64 114 0.0 2.0 0.00 0.00 0.00 67 1011.5
20260830070534 64 107 0.0 2.0 0.00 0.00 0.00 67 1011.5
20260830070504 64 203 0.0 1.0 0.00 0.00 0.00 67 1011.6
20260830070456 64 134 0.0 1.0 0.00 0.00 0.00 67 1011.5
20260830070337 64 203 0.0 1.0 0.00 0.00 0.00 67 1011.6
20260830070235 64 203 0.0 1.0 0.00 0.00 0.00 67 1011.6
20260830070135 64 203 0.0 1.0 0.00 0.00 0.00 67 1011.6
20260830070034 64 203 0.0 1.0 0.00 0.00 0.00 67 1011.6
20260830070011 64 203 0.0 1.0 0.00 0.00 0.00 67 1011.6
20260830065835 64 203 0.0 1.0 0.00 0.00 0.00 66 1011.6
20260830065732 65 203 0.0 1.0 0.00 0.00 0.00 66 1011.6
20260830065629 65 203 0.0 4.0 0.00 0.00 0.00 66 1011.5
20260830065530 65 203 0.0 4.0 0.00 0.00 0.00 66 1011.6
20260830065426 65 203 0.0 4.0 0.00 0.00 0.00 66 1011.6
20260830065348 65 203 0.0 4.0 0.00 0.00 0.00 66 1011.6
20260830065326 65 203 0.0 4.0 0.00 0.00 0.00 66 1011.5
20260830065222 65 203 0.0 4.0 0.00 0.00 0.00 66 1011.6
20260830065127 65 203 1.0 4.0 0.00 0.00 0.00 66 1011.5
20260830065121 65 203 0.0 4.0 0.00 0.00 0.00 66 1011.6
20260830065021 65 203 0.0 4.0 0.00 0.00 0.00 66 1011.5
20260830065005 65 203 1.0 4.0 0.00 0.00 0.00 66 1011.5
20260830064813 65 203 1.0 4.0 0.00 0.00 0.00 66 1011.6
20260830064715 65 203 1.0 4.0 0.00 0.00 0.00 66 1011.6
20260830064613 65 169 0.0 2.0 0.00 0.00 0.00 65 1011.6
20260830064513 65 142 0.0 2.0 0.00 0.00 0.00 66 1011.6
20260830064413 65 141 0.0 2.0 0.00 0.00 0.00 65 1011.6
20260830064340 65 141 0.0 2.0 0.00 0.00 0.00 65 1011.6
20260830064312 65 141 0.0 2.0 0.00 0.00 0.00 65 1011.5
20260830064213 65 141 0.0 2.0 0.00 0.00 0.00 65 1011.5
20260830064111 65 141 0.0 2.0 0.00 0.00 0.00 65 1011.5
20260830064012 65 117 0.0 2.0 0.00 0.00 0.00 65 1011.5
20260830063909 65 105 0.0 2.0 0.00 0.00 0.00 65 1011.5
20260830063809 65 177 0.0 1.0 0.00 0.00 0.00 65 1011.5
20260830063708 65 228 0.0 1.0 0.00 0.00 0.00 65 1011.6
20260830063609 65 228 0.0 1.0 0.00 0.00 0.00 65 1011.5
20260830063510 66 228 0.0 1.0 0.00 0.00 0.00 65 1011.6
20260830063407 66 228 0.0 1.0 0.00 0.00 0.00 65 1011.5
20260830063307 66 228 0.0 1.0 0.00 0.00 0.00 65 1011.5
20260830063205 66 228 0.0 2.0 0.00 0.00 0.00 64 1011.5
20260830063103 66 228 0.0 2.0 0.00 0.00 0.00 64 1011.5
20260830063005 66 228 0.0 2.0 0.00 0.00 0.00 64 1011.5
20260830062835 66 228 0.0 2.0 0.00 0.00 0.00 64 1011.5
20260830062801 66 228 0.0 3.0 0.00 0.00 0.00 64 1011.5
20260830062700 66 228 1.0 3.0 0.00 0.00 0.00 64 1011.6
20260830062557 66 228 1.0 4.0 0.00 0.00 0.00 64 1011.6
20260830062457 66 228 1.0 6.0 0.00 0.00 0.00 63 1011.5
20260830062334 66 228 1.0 6.0 0.00 0.00 0.00 63 1011.5
20260830062257 66 228 1.0 6.0 0.00 0.00 0.00 63 1011.5
20260830062158 66 228 1.0 6.0 0.00 0.00 0.00 63 1011.5
20260830062058 66 228 1.0 6.0 0.00 0.00 0.00 63 1011.5
20260830061957 66 228 2.0 6.0 0.00 0.00 0.00 63 1011.5
20260830061832 66 228 2.0 6.0 0.00 0.00 0.00 63 1011.5
20260830061753 66 193 2.0 6.0 0.00 0.00 0.00 63 1011.5
20260830061653 66 212 2.0 6.0 0.00 0.00 0.00 63 1011.5
20260830061551 66 214 1.0 5.0 0.00 0.00 0.00 63 1011.4
20260830061447 67 245 1.0 3.0 0.00 0.00 0.00 63 1011.5
20260830061345 67 253 1.0 3.0 0.00 0.00 0.00 63 1011.4
20260830061331 67 238 1.0 3.0 0.00 0.00 0.00 63 1011.4
20260830061245 67 238 1.0 3.0 0.00 0.00 0.00 63 1011.4
20260830061145 67 217 1.0 3.0 0.00 0.00 0.00 62 1011.4
20260830061046 67 134 1.0 3.0 0.00 0.00 0.00 62 1011.4
20260830060942 67 110 1.0 3.0 0.00 0.00 0.00 62 1011.5
20260830060843 67 183 1.0 3.0 0.00 0.00 0.00 62 1011.5
20260830060739 67 222 1.0 3.0 0.00 0.00 0.00 62 1011.5
20260830060639 67 205 1.0 3.0 0.00 0.00 0.00 62 1011.5
20260830060539 67 232 1.0 3.0 0.00 0.00 0.00 62 1011.5
20260830060435 67 221 1.0 3.0 0.00 0.00 0.00 62 1011.6
20260830060335 67 221 1.0 4.0 0.00 0.00 0.00 62 1011.6
20260830060234 67 221 1.0 4.0 0.00 0.00 0.00 62 1011.5
20260830060133 67 160 2.0 4.0 0.00 0.00 0.00 62 1011.6
20260830060033 67 148 2.0 4.0 0.00 0.00 0.00 62 1011.5
20260830055934 67 148 2.0 4.0 0.00 0.00 0.00 62 1011.5
20260830055843 67 138 2.0 4.0 0.00 0.00 0.00 62 1011.5
20260830055729 67 242 2.0 4.0 0.00 0.00 0.00 62 1011.5
20260830055629 67 145 1.0 4.0 0.00 0.00 0.00 61 1011.5
20260830055529 67 145 1.0 4.0 0.00 0.00 0.00 61 1011.4
20260830055429 67 139 1.0 4.0 0.00 0.00 0.00 61 1011.4
20260830055331 67 131 1.0 4.0 0.00 0.00 0.00 61 1011.4
20260830055227 67 192 1.0 4.0 0.00 0.00 0.00 61 1011.4
20260830055127 67 121 0.0 4.0 0.00 0.00 0.00 61 1011.4
20260830055034 67 142 1.0 5.0 0.00 0.00 0.00 61 1011.4
20260830054927 67 126 1.0 6.0 0.00 0.00 0.00 61 1011.4
20260830054829 67 125 1.0 6.0 0.00 0.00 0.00 61 1011.4
20260830054725 67 125 1.0 6.0 0.00 0.00 0.00 61 1011.4
20260830054625 67 125 1.0 6.0 0.00 0.00 0.00 61 1011.3
20260830054525 67 126 1.0 6.0 0.00 0.00 0.00 61 1011.4
20260830054428 67 125 1.0 6.0 0.00 0.00 0.00 61 1011.4
20260830054326 67 195 2.0 6.0 0.00 0.00 0.00 61 1011.3
20260830054225 67 200 2.0 6.0 0.00 0.00 0.00 61 1011.3
20260830054125 67 200 2.0 6.0 0.00 0.00 0.00 61 1011.4
20260830054029 67 200 2.0 6.0 0.00 0.00 0.00 61 1011.3
20260830053924 67 239 2.0 4.0 0.00 0.00 0.00 61 1011.3
20260830053826 67 239 2.0 4.0 0.00 0.00 0.00 61 1011.3
20260830053719 67 243 2.0 4.0 0.00 0.00 0.00 61 1011.2
20260830053619 67 238 2.0 4.0 0.00 0.00 0.00 61 1011.3
20260830053546 68 225 3.0 6.0 0.00 0.00 0.00 61 1011.2
20260830053519 67 232 2.0 6.0 0.00 0.00 0.00 61 1011.3
20260830053435 68 224 2.0 6.0 0.00 0.00 0.00 61 1011.3
20260830053425 68 225 3.0 6.0 0.00 0.00 0.00 61 1011.2
20260830053213 68 148 3.0 6.0 0.00 0.00 0.00 60 1011.3
20260830053114 68 201 3.0 6.0 0.00 0.00 0.00 60 1011.4
20260830053039 68 143 3.0 6.0 0.00 0.00 0.00 60 1011.3
20260830053013 68 156 3.0 6.0 0.00 0.00 0.00 60 1011.3
20260830052929 68 214 3.0 6.0 0.00 0.00 0.00 60 1011.3
20260830052813 68 143 3.0 6.0 0.00 0.00 0.00 60 1011.3
20260830052710 68 150 3.0 6.0 0.00 0.00 0.00 60 1011.3
20260830052609 68 204 3.0 6.0 0.00 0.00 0.00 60 1011.3
20260830052509 68 173 2.0 6.0 0.00 0.00 0.00 60 1011.3
20260830052409 68 233 2.0 6.0 0.00 0.00 0.00 60 1011.3
20260830052314 68 238 2.0 6.0 0.00 0.00 0.00 60 1011.3
20260830052309 68 250 1.0 6.0 0.00 0.00 0.00 60 1011.3
20260830052209 68 243 1.0 6.0 0.00 0.00 0.00 60 1011.3
20260830052109 68 207 1.0 4.0 0.00 0.00 0.00 60 1011.3
20260830052034 68 181 1.0 4.0 0.00 0.00 0.00 60 1011.3
20260830052007 68 201 1.0 3.0 0.00 0.00 0.00 60 1011.3
20260830051923 68 239 1.0 3.0 0.00 0.00 0.00 60 1011.3
20260830051807 68 183 1.0 4.0 0.00 0.00 0.00 60 1011.3
20260830051705 68 222 1.0 6.0 0.00 0.00 0.00 60 1011.4
20260830051603 68 221 1.0 6.0 0.00 0.00 0.00 59 1011.4
20260830051501 68 233 1.0 6.0 0.00 0.00 0.00 59 1011.4
20260830051402 68 233 2.0 8.0 0.00 0.00 0.00 59 1011.4
20260830051313 68 233 2.0 9.0 0.00 0.00 0.00 59 1011.4
20260830051301 68 233 2.0 9.0 0.00 0.00 0.00 59 1011.4
20260830051200 69 233 2.0 9.0 0.00 0.00 0.00 59 1011.4
20260830051057 69 233 3.0 9.0 0.00 0.00 0.00 59 1011.3
20260830050955 69 233 3.0 9.0 0.00 0.00 0.00 59 1011.3
20260830050855 69 233 3.0 9.0 0.00 0.00 0.00 59 1011.2
20260830050816 69 165 3.0 9.0 0.00 0.00 0.00 59 1011.2
20260830050753 69 133 3.0 9.0 0.00 0.00 0.00 59 1011.2
20260830050653 69 210 4.0 9.0 0.00 0.00 0.00 59 1011.1
20260830050551 69 260 4.0 9.0 0.00 0.00 0.00 59 1011.2
20260830050452 69 217 4.0 9.0 0.00 0.00 0.00 59 1011.1
20260830050351 69 215 4.0 8.0 0.00 0.00 0.00 59 1011.1
20260830050312 69 195 4.0 8.0 0.00 0.00 0.00 59 1011.1
20260830050251 69 229 4.0 8.0 0.00 0.00 0.00 59 1011.1
20260830050151 69 195 4.0 8.0 0.00 0.00 0.00 59 1011.1
20260830050052 69 218 4.0 8.0 0.00 0.00 0.00 59 1011.1
20260830045953 69 238 4.0 8.0 0.00 0.00 0.00 59 1011.1
20260830045851 69 215 3.0 8.0 0.00 0.00 0.00 59 1011.1
20260830045812 69 228 3.0 8.0 0.00 0.00 0.00 59 1011.1
20260830045751 69 233 3.0 8.0 0.00 0.00 0.00 58 1011.1
20260830045651 69 215 3.0 8.0 0.00 0.00 0.00 59 1011.2
20260830045552 69 138 3.0 8.0 0.00 0.00 0.00 58 1011.2
20260830045445 69 200 3.0 8.0 0.00 0.00 0.00 58 1011.2
20260830045345 69 147 3.0 8.0 0.00 0.00 0.00 58 1011.2
20260830045313 69 194 3.0 8.0 0.00 0.00 0.00 58 1011.3
20260830045245 69 197 3.0 8.0 0.00 0.00 0.00 59 1011.3
20260830045143 69 215 3.0 8.0 0.00 0.00 0.00 58 1011.2
20260830045043 69 215 4.0 8.0 0.00 0.00 0.00 58 1011.3
20260830044937 69 256 4.0 8.0 0.00 0.00 0.00 58 1011.3
20260830044837 69 212 3.0 8.0 0.00 0.00 0.00 58 1011.3
20260830044812 69 233 4.0 8.0 0.00 0.00 0.00 58 1011.2
20260830044737 69 240 4.0 8.0 0.00 0.00 0.00 58 1011.2
20260830044638 69 225 4.0 8.0 0.00 0.00 0.00 58 1011.2
20260830044537 69 245 3.0 8.0 0.00 0.00 0.00 58 1011.3
20260830044432 69 232 3.0 8.0 0.00 0.00 0.00 58 1011.2
20260830044332 69 236 3.0 8.0 0.00 0.00 0.00 58 1011.2
20260830044312 69 232 3.0 8.0 0.00 0.00 0.00 58 1011.2
20260830044231 69 221 3.0 8.0 0.00 0.00 0.00 58 1011.2
20260830044132 69 221 2.0 8.0 0.00 0.00 0.00 58 1011.2
20260830044029 69 253 2.0 8.0 0.00 0.00 0.00 58 1011.2
20260830043923 70 200 2.0 7.0 0.00 0.00 0.00 58 1011.2
20260830043823 70 210 2.0 7.0 0.00 0.00 0.00 58 1011.2
20260830043813 70 197 2.0 7.0 0.00 0.00 0.00 58 1011.2
20260830043723 70 191 2.0 7.0 0.00 0.00 0.00 58 1011.2
20260830043623 70 193 2.0 5.0 0.00 0.00 0.00 58 1011.2
20260830043523 70 187 3.0 8.0 0.00 0.00 0.00 58 1011.2
20260830043417 70 138 3.0 8.0 0.00 0.00 0.00 58 1011.2
20260830043313 70 138 3.0 8.0 0.00 0.00 0.00 57 1011.2
20260830043217 70 146 3.0 8.0 0.00 0.00 0.00 57 1011.2
20260830043117 70 158 3.0 8.0 0.00 0.00 0.00 57 1011.2
20260830043017 70 152 3.0 8.0 0.00 0.00 0.00 57 1011.2
20260830042913 70 130 3.0 8.0 0.00 0.00 0.00 57 1011.1
20260830042811 70 217 3.0 8.0 0.00 0.00 0.00 57 1011.1
20260830042711 70 215 3.0 8.0 0.00 0.00 0.00 57 1011.1
20260830042611 71 221 2.0 8.0 0.00 0.00 0.00 57 1011.1
20260830042511 71 210 2.0 7.0 0.00 0.00 0.00 57 1011.1
20260830042405 71 228 2.0 7.0 0.00 0.00 0.00 56 1011.1
20260830042312 71 243 2.0 7.0 0.00 0.00 0.00 56 1011.1
20260830042306 71 235 2.0 7.0 0.00 0.00 0.00 56 1011.1
20260830042205 71 145 2.0 7.0 0.00 0.00 0.00 56 1011.1
20260830042105 71 238 2.0 7.0 0.00 0.00 0.00 56 1011.1
20260830042005 71 239 3.0 7.0 0.00 0.00 0.00 56 1011.0
20260830041859 71 212 3.0 7.0 0.00 0.00 0.00 56 1011.0
20260830041812 71 226 3.0 7.0 0.00 0.00 0.00 56 1011.0
20260830041801 71 221 3.0 7.0 0.00 0.00 0.00 56 1011.0
20260830041659 71 217 3.0 7.0 0.00 0.00 0.00 56 1011.0
20260830041558 71 243 3.0 7.0 0.00 0.00 0.00 56 1011.0
20260830041538 71 223 4.0 7.0 0.00 0.00 0.00 55 1011.0
20260830041457 71 245 4.0 7.0 0.00 0.00 0.00 55 1011.0
20260830041423 71 238 4.0 7.0 0.00 0.00 0.00 55 1011.0
20260830041251 71 239 4.0 7.0 0.00 0.00 0.00 55 1011.0
20260830041155 71 281 4.0 8.0 0.00 0.00 0.00 55 1010.9
20260830041051 71 218 4.0 9.0 0.00 0.00 0.00 55 1010.9
20260830040954 71 233 4.0 10.0 0.00 0.00 0.00 55 1010.8
20260830040851 72 232 4.0 10.0 0.00 0.00 0.00 55 1010.8
20260830040806 72 236 4.0 10.0 0.00 0.00 0.00 55 1010.8
20260830040750 72 231 4.0 10.0 0.00 0.00 0.00 55 1010.8
20260830040649 72 208 4.0 10.0 0.00 0.00 0.00 54 1010.8
20260830040549 72 208 4.0 10.0 0.00 0.00 0.00 54 1010.8
20260830040451 72 235 4.0 10.0 0.00 0.00 0.00 54 1010.8
20260830040349 72 143 4.0 10.0 0.00 0.00 0.00 54 1010.8
20260830040259 72 214 3.0 10.0 0.00 0.00 0.00 54 1010.8
20260830040249 72 162 3.0 10.0 0.00 0.00 0.00 54 1010.8
20260830040149 72 201 3.0 10.0 0.00 0.00 0.00 54 1010.8
20260830040049 72 241 3.0 10.0 0.00 0.00 0.00 53 1010.8
20260830035949 72 145 3.0 10.0 0.00 0.00 0.00 53 1010.8
20260830035849 72 228 3.0 10.0 0.00 0.00 0.00 53 1010.7
20260830035749 72 240 3.0 10.0 0.00 0.00 0.00 53 1010.7
20260830035650 72 235 3.0 10.0 0.00 0.00 0.00 53 1010.7
20260830035547 72 231 3.0 10.0 0.00 0.00 0.00 53 1010.6
20260830035448 72 238 3.0 9.0 0.00 0.00 0.00 53 1010.6
20260830035346 72 226 3.0 9.0 0.00 0.00 0.00 53 1010.6
20260830035243 72 263 3.0 9.0 0.00 0.00 0.00 53 1010.5
20260830035143 72 142 3.0 9.0 0.00 0.00 0.00 53 1010.5
20260830035043 72 214 3.0 9.0 0.00 0.00 0.00 53 1010.5
20260830035011 73 245 3.0 8.0 0.00 0.00 0.00 52 1010.4
20260830034943 72 264 3.0 7.0 0.00 0.00 0.00 52 1010.5
20260830034903 73 222 3.0 7.0 0.00 0.00 0.00 52 1010.5
20260830034743 73 233 3.0 8.0 0.00 0.00 0.00 52 1010.4
20260830034637 73 245 2.0 8.0 0.00 0.00 0.00 52 1010.5
20260830034537 73 259 3.0 8.0 0.00 0.00 0.00 52 1010.5
20260830034437 73 221 3.0 8.0 0.00 0.00 0.00 52 1010.5
20260830034337 73 229 2.0 8.0 0.00 0.00 0.00 52 1010.5
20260830034252 73 207 2.0 8.0 0.00 0.00 0.00 52 1010.6
20260830034237 73 260 2.0 8.0 0.00 0.00 0.00 52 1010.6
20260830034133 73 259 2.0 8.0 0.00 0.00 0.00 52 1010.5